Observation data for Tarzan on 01/17/2021      Previous  Date  Next       Current Mesonet Observations  Soil Data  Daily Summary Page  Observations in Plain Language
KTA1 170600Z 35008KT 01/M05 A301 RMK A01 T00131045  RH  065%=      5-min Rain = 0
KTA1 170601Z 35008KT 01/M05 A301 RMK A01 T00131045  RH  066%=      5-min Rain = 0
KTA1 170602Z 35008KT 01/M05 A301 RMK A01 T00121045  RH  066%=      5-min Rain = 0
KTA1 170603Z 35008KT 01/M04 A301 RMK A01 T00121044  RH  066%=      5-min Rain = 0
KTA1 170604Z 35008KT 01/M04 A301 RMK A01 T00111044  RH  067%=      5-min Rain = 0
KTA1 170605Z 35009KT 01/M04 A301 RMK A01 T00111043  RH  067%=      5-min Rain = 0
KTA1 170606Z 35009KT 01/M04 A3011 RMK A01 T00111043  RH  067%=      5-min Rain = 0
KTA1 170607Z 35009KT 01/M04 A3011 RMK A01 T00111043  RH  067%=      5-min Rain = 0
KTA1 170608Z 35009KT 01/M04 A3011 RMK A01 T00121043  RH  067%=      5-min Rain = 0
KTA1 170609Z 35009KT 01/M04 A3011 RMK A01 T00121043  RH  067%=      5-min Rain = 0
KTA1 170610Z 35009KT 01/M04 A3011 RMK A01 T00121043  RH  067%=      5-min Rain = 0
KTA1 170611Z 35009KT 01/M04 A3011 RMK A01 T00121043  RH  067%=      5-min Rain = 0
KTA1 170612Z 34009KT 01/M04 A3011 RMK A01 T00121043  RH  067%=      5-min Rain = 0
KTA1 170613Z 34009KT 01/M04 A3011 RMK A01 T00121042  RH  067%=      5-min Rain = 0
KTA1 170614Z 35009KT 01/M04 A3011 RMK A01 T00121043  RH  067%=      5-min Rain = 0
KTA1 170615Z 35009KT 01/M04 A3011 RMK A01 T00131043  RH  066%=      5-min Rain = 0
KTA1 170616Z 34008KT 01/M04 A3011 RMK A01 T00131043  RH  066%=      5-min Rain = 0
KTA1 170617Z 34008KT 01/M04 A3011 RMK A01 T00131043  RH  066%=      5-min Rain = 0
KTA1 170618Z 35008KT 01/M04 A3011 RMK A01 T00131044  RH  066%=      5-min Rain = 0
KTA1 170619Z 35008KT 01/M04 A3011 RMK A01 T00121044  RH  066%=      5-min Rain = 0
KTA1 170620Z 35008KT 01/M04 A3011 RMK A01 T00111044  RH  067%=      5-min Rain = 0
KTA1 170621Z 35008KT 01/M04 A3011 RMK A01 T00101044  RH  067%=      5-min Rain = 0
KTA1 170622Z 35008KT 01/M04 A3011 RMK A01 T00091044  RH  068%=      5-min Rain = 0
KTA1 170623Z 35008KT 01/M04 A3011 RMK A01 T00091043  RH  068%=      5-min Rain = 0
KTA1 170624Z 35008KT 01/M04 A3011 RMK A01 T00091043  RH  068%=      5-min Rain = 0
KTA1 170625Z 35008KT 01/M04 A3011 RMK A01 T00091043  RH  068%=      5-min Rain = 0
KTA1 170626Z 35008KT 01/M04 A3011 RMK A01 T00091043  RH  068%=      5-min Rain = 0
KTA1 170627Z 36008KT 01/M04 A3011 RMK A01 T00091043  RH  068%=      5-min Rain = 0
KTA1 170628Z 35008KT 01/M04 A3011 RMK A01 T00101043  RH  068%=      5-min Rain = 0
KTA1 170629Z 35008KT 01/M04 A3011 RMK A01 T00101043  RH  068%=      5-min Rain = 0
KTA1 170630Z 35008KT 01/M04 A3011 RMK A01 T00111042  RH  068%=      5-min Rain = 0
KTA1 170631Z 35008KT 01/M04 A3011 RMK A01 T00111042  RH  067%=      5-min Rain = 0
KTA1 170632Z 35008KT 01/M04 A3011 RMK A01 T00111043  RH  067%=      5-min Rain = 0
KTA1 170633Z 34009KT 01/M04 A3011 RMK A01 T00111043  RH  067%=      5-min Rain = 0
KTA1 170634Z 34007KT 01/M04 A3011 RMK A01 T00111043  RH  067%=      5-min Rain = 0
KTA1 170635Z 34007KT 01/M04 A3011 RMK A01 T00111043  RH  067%=      5-min Rain = 0
KTA1 170636Z 34008KT 01/M04 A3011 RMK A01 T00101043  RH  067%=      5-min Rain = 0
KTA1 170637Z 34007KT 01/M04 A3011 RMK A01 T00101043  RH  068%=      5-min Rain = 0
KTA1 170638Z 34008KT 01/M04 A3011 RMK A01 T00091043  RH  068%=      5-min Rain = 0
KTA1 170639Z 35008KT 01/M04 A3011 RMK A01 T00091043  RH  068%=      5-min Rain = 0
KTA1 170640Z 35008KT 01/M04 A3011 RMK A01 T00091043  RH  068%=      5-min Rain = 0
KTA1 170641Z 35008KT 01/M04 A3011 RMK A01 T00081043  RH  068%=      5-min Rain = 0
KTA1 170642Z 35008KT 01/M04 A3011 RMK A01 T00081043  RH  069%=      5-min Rain = 0
KTA1 170643Z 35009KT 01/M04 A3011 RMK A01 T00081043  RH  069%=      5-min Rain = 0
KTA1 170644Z 35009KT 01/M04 A3011 RMK A01 T00081043  RH  069%=      5-min Rain = 0
KTA1 170645Z 35009KT 01/M04 A3011 RMK A01 T00081043  RH  069%=      5-min Rain = 0
KTA1 170646Z 35008KT 01/M04 A3011 RMK A01 T00081043  RH  069%=      5-min Rain = 0
KTA1 170647Z 35008KT 01/M04 A3011 RMK A01 T00081043  RH  069%=      5-min Rain = 0
KTA1 170648Z 35007KT 01/M04 A3011 RMK A01 T00081043  RH  069%=      5-min Rain = 0
KTA1 170649Z 35007KT 01/M04 A3011 RMK A01 T00071043  RH  069%=      5-min Rain = 0
KTA1 170650Z 35007KT 01/M04 A3011 RMK A01 T00061043  RH  069%=      5-min Rain = 0
KTA1 170651Z 35007KT 01/M04 A3011 RMK A01 T00061043  RH  070%=      5-min Rain = 0
KTA1 170652Z 35008KT 01/M04 A3011 RMK A01 T00051043  RH  070%=      5-min Rain = 0
KTA1 170653Z 34008KT 01/M04 A3011 RMK A01 T00051043  RH  070%=      5-min Rain = 0
KTA1 170654Z 34008KT 01/M04 A3011 RMK A01 T00051043  RH  070%=      5-min Rain = 0
KTA1 170655Z 34008KT 00/M04 A3011 RMK A01 T00041044  RH  070%=      5-min Rain = 0
KTA1 170656Z 34008KT 01/M04 A3011 RMK A01 T00051044  RH  070%=      5-min Rain = 0
KTA1 170657Z 34008KT 01/M04 A3011 RMK A01 T00051044  RH  070%=      5-min Rain = 0
KTA1 170658Z 34008KT 01/M04 A3011 RMK A01 T00051043  RH  070%=      5-min Rain = 0
KTA1 170659Z 34008KT 01/M04 A3012 RMK A01 T00051044  RH  070%=      5-min Rain = 0
KTA1 170700Z 33008KT 01/M04 A3012 RMK A01 T00051043  RH  070%=      5-min Rain = 0
KTA1 170701Z 34008KT 01/M04 A3012 RMK A01 T00051043  RH  070%=      5-min Rain = 0
KTA1 170702Z 34008KT 01/M04 A3012 RMK A01 T00051044  RH  070%=      5-min Rain = 0
KTA1 170703Z 34008KT 01/M04 A3012 RMK A01 T00061044  RH  069%=      5-min Rain = 0
KTA1 170704Z 34009KT 01/M04 A3012 RMK A01 T00061044  RH  069%=      5-min Rain = 0
KTA1 170705Z 34008KT 01/M04 A3012 RMK A01 T00071044  RH  069%=      5-min Rain = 0
KTA1 170706Z 34008KT 01/M04 A3012 RMK A01 T00071044  RH  069%=      5-min Rain = 0
KTA1 170707Z 34008KT 01/M04 A3012 RMK A01 T00061044  RH  069%=      5-min Rain = 0
KTA1 170708Z 34007KT 01/M04 A3012 RMK A01 T00061044  RH  069%=      5-min Rain = 0
KTA1 170709Z 34007KT 01/M05 A3012 RMK A01 T00061045  RH  069%=      5-min Rain = 0
KTA1 170710Z 34007KT 01/M05 A3012 RMK A01 T00061045  RH  069%=      5-min Rain = 0
KTA1 170711Z 34007KT 01/M05 A3012 RMK A01 T00061045  RH  068%=      5-min Rain = 0
KTA1 170712Z 34007KT 01/M05 A3011 RMK A01 T00061045  RH  068%=      5-min Rain = 0
KTA1 170713Z 34007KT 01/M05 A3011 RMK A01 T00061046  RH  068%=      5-min Rain = 0
KTA1 170714Z 34007KT 01/M05 A3011 RMK A01 T00061046  RH  069%=      5-min Rain = 0
KTA1 170715Z 34007KT 00/M05 A3011 RMK A01 T00041046  RH  069%=      5-min Rain = 0
KTA1 170716Z 34007KT 00/M05 A3011 RMK A01 T00041046  RH  069%=      5-min Rain = 0
KTA1 170717Z 34007KT 00/M05 A3011 RMK A01 T00041046  RH  069%=      5-min Rain = 0
KTA1 170718Z 33007KT 00/M05 A3011 RMK A01 T00031046  RH  070%=      5-min Rain = 0
KTA1 170719Z 33007KT 00/M05 A3011 RMK A01 T00031046  RH  070%=      5-min Rain = 0
KTA1 170720Z 33007KT 00/M05 A3012 RMK A01 T00031046  RH  070%=      5-min Rain = 0
KTA1 170721Z 33007KT 00/M05 A3012 RMK A01 T00031046  RH  070%=      5-min Rain = 0
KTA1 170722Z 33007KT 00/M05 A3012 RMK A01 T00031046  RH  070%=      5-min Rain = 0
KTA1 170723Z 33007KT 00/M05 A3012 RMK A01 T00031045  RH  070%=      5-min Rain = 0
KTA1 170724Z 33007KT 00/M05 A3012 RMK A01 T00031046  RH  070%=      5-min Rain = 0
KTA1 170725Z 33007KT 00/M05 A3012 RMK A01 T00031046  RH  070%=      5-min Rain = 0
KTA1 170726Z 33007KT 00/M05 A3011 RMK A01 T00031046  RH  070%=      5-min Rain = 0
KTA1 170727Z 33006KT 00/M05 A3011 RMK A01 T00021045  RH  070%=      5-min Rain = 0
KTA1 170728Z 34007KT 00/M05 A3011 RMK A01 T00021046  RH  070%=      5-min Rain = 0
KTA1 170729Z 34007KT 00/M05 A3012 RMK A01 T00021045  RH  070%=      5-min Rain = 0
KTA1 170730Z 34007KT 00/M05 A3012 RMK A01 T00021045  RH  070%=      5-min Rain = 0
KTA1 170731Z 34007KT 00/M05 A3012 RMK A01 T00021045  RH  070%=      5-min Rain = 0
KTA1 170732Z 34007KT 00/M05 A3012 RMK A01 T00021046  RH  071%=      5-min Rain = 0
KTA1 170733Z 33006KT 00/M05 A3011 RMK A01 T00011046  RH  071%=      5-min Rain = 0
KTA1 170734Z 33006KT 00/M05 A3011 RMK A01 T00011046  RH  071%=      5-min Rain = 0
KTA1 170735Z 33005KT 00/M05 A3011 RMK A01 T00011046  RH  071%=      5-min Rain = 0
KTA1 170736Z 33005KT 00/M05 A3011 RMK A01 T00011046  RH  071%=      5-min Rain = 0
KTA1 170737Z 33005KT 00/M05 A3011 RMK A01 T00011046  RH  071%=      5-min Rain = 0
KTA1 170738Z 34005KT 00/05 A3011 RMK A01 T00000-46  RH  071%=      5-min Rain = 0
KTA1 170739Z 34005KT M00/M05 A3011 RMK A01 T10011046  RH  071%=      5-min Rain = 0
KTA1 170740Z 34005KT M00/M05 A3011 RMK A01 T10011047  RH  071%=      5-min Rain = 0
KTA1 170741Z 34005KT M00/M05 A3011 RMK A01 T10021047  RH  072%=      5-min Rain = 0
KTA1 170742Z 34004KT M00/M05 A3011 RMK A01 T10021046  RH  072%=      5-min Rain = 0
KTA1 170743Z 34004KT M00/M05 A3011 RMK A01 T10021047  RH  072%=      5-min Rain = 0
KTA1 170744Z 34003KT M00/M05 A3011 RMK A01 T10031047  RH  072%=      5-min Rain = 0
KTA1 170745Z 34003KT M00/M05 A3011 RMK A01 T10031047  RH  072%=      5-min Rain = 0
KTA1 170746Z 34004KT M00/M05 A3011 RMK A01 T10031047  RH  073%=      5-min Rain = 0
KTA1 170747Z 34004KT M00/M05 A301 RMK A01 T10041047  RH  073%=      5-min Rain = 0
KTA1 170748Z 34004KT M00/M05 A301 RMK A01 T10041047  RH  073%=      5-min Rain = 0
KTA1 170749Z 35004KT M00/M05 A301 RMK A01 T10041047  RH  073%=      5-min Rain = 0
KTA1 170750Z 35004KT M00/M05 A301 RMK A01 T10041047  RH  073%=      5-min Rain = 0
KTA1 170751Z 35004KT M00/M05 A301 RMK A01 T10041047  RH  073%=      5-min Rain = 0
KTA1 170752Z 36004KT M01/M05 A301 RMK A01 T10051048  RH  073%=      5-min Rain = 0
KTA1 170753Z 00005KT M01/M05 A301 RMK A01 T10051048  RH  073%=      5-min Rain = 0
KTA1 170754Z 00004KT M01/M05 A301 RMK A01 T10061048  RH  073%=      5-min Rain = 0
KTA1 170755Z 36004KT M01/M05 A301 RMK A01 T10061049  RH  073%=      5-min Rain = 0
KTA1 170756Z 36004KT M01/M05 A301 RMK A01 T10071049  RH  073%=      5-min Rain = 0
KTA1 170757Z 35004KT M01/M05 A301 RMK A01 T10071049  RH  074%=      5-min Rain = 0
KTA1 170758Z 35003KT M01/M05 A301 RMK A01 T10081049  RH  074%=      5-min Rain = 0
KTA1 170759Z 35002KT M01/M05 A301 RMK A01 T10091048  RH  075%=      5-min Rain = 0
KTA1 170800Z 34001KT M01/M05 A301 RMK A01 T10091047  RH  075%=      5-min Rain = 0
KTA1 170801Z 34001KT M01/M05 A301 RMK A01 T10091047  RH  075%=      5-min Rain = 0
KTA1 170802Z 34001KT M01/M05 A301 RMK A01 T10091047  RH  076%=      5-min Rain = 0
KTA1 170803Z 34001KT M01/M05 A301 RMK A01 T10101047  RH  076%=      5-min Rain = 0
KTA1 170804Z 34001KT M01/M05 A301 RMK A01 T10101048  RH  076%=      5-min Rain = 0
KTA1 170805Z 32002KT M01/M05 A301 RMK A01 T10111048  RH  076%=      5-min Rain = 0
KTA1 170806Z 32002KT M01/M05 A301 RMK A01 T10111047  RH  077%=      5-min Rain = 0
KTA1 170807Z 31003KT M01/M05 A301 RMK A01 T10101046  RH  077%=      5-min Rain = 0
KTA1 170808Z 31004KT M01/M05 A301 RMK A01 T10091045  RH  076%=      5-min Rain = 0
KTA1 170809Z 31004KT M01/M05 A301 RMK A01 T10081046  RH  076%=      5-min Rain = 0
KTA1 170810Z 31005KT M01/M05 A301 RMK A01 T10091047  RH  076%=      5-min Rain = 0
KTA1 170811Z 31005KT M01/M05 A301 RMK A01 T10121049  RH  076%=      5-min Rain = 0
KTA1 170812Z 31005KT M01/M05 A301 RMK A01 T10141050  RH  076%=      5-min Rain = 0
KTA1 170813Z 31005KT M02/M05 A301 RMK A01 T10151050  RH  077%=      5-min Rain = 0
KTA1 170814Z 31005KT M02/M05 A3011 RMK A01 T10161049  RH  078%=      5-min Rain = 0
KTA1 170815Z 31005KT M02/M05 A3011 RMK A01 T10151048  RH  078%=      5-min Rain = 0
KTA1 170816Z 31006KT M02/M05 A3011 RMK A01 T10151047  RH  079%=      5-min Rain = 0
KTA1 170817Z 31006KT M02/M05 A3011 RMK A01 T10161047  RH  079%=      5-min Rain = 0
KTA1 170818Z 31006KT M02/M05 A3011 RMK A01 T10161047  RH  079%=      5-min Rain = 0
KTA1 170819Z 31006KT M02/M05 A3011 RMK A01 T10161047  RH  079%=      5-min Rain = 0
KTA1 170820Z 31007KT M02/M05 A3011 RMK A01 T10161047  RH  080%=      5-min Rain = 0
KTA1 170821Z 31007KT M02/M05 A3011 RMK A01 T10171047  RH  080%=      5-min Rain = 0
KTA1 170822Z 31007KT M02/M05 A3011 RMK A01 T10171047  RH  080%=      5-min Rain = 0
KTA1 170823Z 31007KT M02/M05 A3011 RMK A01 T10171046  RH  080%=      5-min Rain = 0
KTA1 170824Z 31007KT M02/M05 A3011 RMK A01 T10171046  RH  080%=      5-min Rain = 0
KTA1 170825Z 31007KT M02/M05 A3011 RMK A01 T10171046  RH  080%=      5-min Rain = 0
KTA1 170826Z 31008KT M02/M05 A3011 RMK A01 T10161046  RH  080%=      5-min Rain = 0
KTA1 170827Z 31007KT M02/M05 A3011 RMK A01 T10151046  RH  080%=      5-min Rain = 0
KTA1 170828Z 31007KT M02/M05 A3011 RMK A01 T10151046  RH  079%=      5-min Rain = 0
KTA1 170829Z 30007KT M01/M05 A3011 RMK A01 T10141046  RH  079%=      5-min Rain = 0
KTA1 170830Z 30007KT M01/M05 A3011 RMK A01 T10131045  RH  079%=      5-min Rain = 0
KTA1 170831Z 30006KT M01/M05 A3011 RMK A01 T10121045  RH  078%=      5-min Rain = 0
KTA1 170832Z 30006KT M01/M05 A3011 RMK A01 T10111046  RH  078%=      5-min Rain = 0
KTA1 170833Z 30006KT M01/M05 A3011 RMK A01 T10111046  RH  077%=      5-min Rain = 0
KTA1 170834Z 30007KT M01/M05 A3011 RMK A01 T10111047  RH  077%=      5-min Rain = 0
KTA1 170835Z 30007KT M01/M05 A3011 RMK A01 T10111047  RH  077%=      5-min Rain = 0
KTA1 170836Z 30007KT M01/M05 A3011 RMK A01 T10111047  RH  077%=      5-min Rain = 0
KTA1 170837Z 30007KT M01/M05 A3011 RMK A01 T10111047  RH  077%=      5-min Rain = 0
KTA1 170838Z 30007KT M01/M05 A3011 RMK A01 T10111047  RH  077%=      5-min Rain = 0
KTA1 170839Z 30007KT M01/M05 A3011 RMK A01 T10111047  RH  077%=      5-min Rain = 0
KTA1 170840Z 30007KT M01/M05 A3011 RMK A01 T10111046  RH  077%=      5-min Rain = 0
KTA1 170841Z 30007KT M01/M05 A3011 RMK A01 T10111047  RH  077%=      5-min Rain = 0
KTA1 170842Z 31008KT M01/M05 A3011 RMK A01 T10111046  RH  077%=      5-min Rain = 0
KTA1 170843Z 31008KT M01/M05 A3011 RMK A01 T10111046  RH  077%=      5-min Rain = 0
KTA1 170844Z 30007KT M01/M05 A3011 RMK A01 T10111045  RH  077%=      5-min Rain = 0
KTA1 170845Z 30007KT M01/M05 A3011 RMK A01 T10111045  RH  078%=      5-min Rain = 0
KTA1 170846Z 30006KT M01/M05 A3011 RMK A01 T10101045  RH  077%=      5-min Rain = 0
KTA1 170847Z 30006KT M01/M04 A3011 RMK A01 T10101044  RH  077%=      5-min Rain = 0
KTA1 170848Z 30006KT M01/M04 A3011 RMK A01 T10101044  RH  077%=      5-min Rain = 0
KTA1 170849Z 30007KT M01/M04 A3011 RMK A01 T10101044  RH  077%=      5-min Rain = 0
KTA1 170850Z 31008KT M01/M04 A3011 RMK A01 T10101044  RH  078%=      5-min Rain = 0
KTA1 170851Z 31008KT M01/M04 A3011 RMK A01 T10101044  RH  078%=      5-min Rain = 0
KTA1 170852Z 31009KT M01/M04 A3011 RMK A01 T10111044  RH  078%=      5-min Rain = 0
KTA1 170853Z 31009KT M01/M04 A3011 RMK A01 T10101044  RH  078%=      5-min Rain = 0
KTA1 170854Z 31009KT M01/M04 A3012 RMK A01 T10101044  RH  078%=      5-min Rain = 0
KTA1 170855Z 31009KT M01/M04 A3012 RMK A01 T10091044  RH  078%=      5-min Rain = 0
KTA1 170856Z 31009KT M01/M04 A3012 RMK A01 T10091044  RH  077%=      5-min Rain = 0
KTA1 170857Z 31009KT M01/M04 A3012 RMK A01 T10091044  RH  077%=      5-min Rain = 0
KTA1 170858Z 31009KT M01/M04 A3012 RMK A01 T10091044  RH  077%=      5-min Rain = 0
KTA1 170859Z 31009KT M01/M04 A3012 RMK A01 T10081044  RH  077%=      5-min Rain = 0
KTA1 170900Z 31009KT M01/M04 A3012 RMK A01 T10081044  RH  077%=      5-min Rain = 0
KTA1 170901Z 31009KT M01/M04 A3012 RMK A01 T10081044  RH  076%=      5-min Rain = 0
KTA1 170902Z 31009KT M01/M04 A3012 RMK A01 T10071044  RH  076%=      5-min Rain = 0
KTA1 170903Z 31009KT M01/M04 A3012 RMK A01 T10071044  RH  076%=      5-min Rain = 0
KTA1 170904Z 31009KT M01/M04 A3012 RMK A01 T10071044  RH  076%=      5-min Rain = 0
KTA1 170905Z 31009KT M01/M04 A3012 RMK A01 T10061044  RH  076%=      5-min Rain = 0
KTA1 170906Z 31009KT M01/M04 A3012 RMK A01 T10061044  RH  075%=      5-min Rain = 0
KTA1 170907Z 31009KT M01/M04 A3012 RMK A01 T10061044  RH  075%=      5-min Rain = 0
KTA1 170908Z 31009KT M01/M04 A3012 RMK A01 T10061044  RH  075%=      5-min Rain = 0
KTA1 170909Z 31009KT M01/M04 A3012 RMK A01 T10061044  RH  075%=      5-min Rain = 0
KTA1 170910Z 31009KT M01/M04 A3012 RMK A01 T10061044  RH  075%=      5-min Rain = 0
KTA1 170911Z 31009KT M01/M05 A3012 RMK A01 T10061045  RH  075%=      5-min Rain = 0
KTA1 170912Z 31009KT M01/M05 A3012 RMK A01 T10061045  RH  075%=      5-min Rain = 0
KTA1 170913Z 31008KT M01/M05 A3012 RMK A01 T10071045  RH  075%=      5-min Rain = 0
KTA1 170914Z 31007KT M01/M05 A3012 RMK A01 T10071045  RH  075%=      5-min Rain = 0
KTA1 170915Z 30007KT M01/M05 A3012 RMK A01 T10071045  RH  075%=      5-min Rain = 0
KTA1 170916Z 30007KT M01/M05 A3012 RMK A01 T10071045  RH  075%=      5-min Rain = 0
KTA1 170917Z 30007KT M01/M05 A3012 RMK A01 T10071045  RH  075%=      5-min Rain = 0
KTA1 170918Z 30007KT M01/M05 A3012 RMK A01 T10071045  RH  075%=      5-min Rain = 0
KTA1 170919Z 30007KT M01/M05 A3012 RMK A01 T10071045  RH  075%=      5-min Rain = 0
KTA1 170920Z 30008KT M01/M05 A3012 RMK A01 T10081046  RH  076%=      5-min Rain = 0
KTA1 170921Z 30008KT M01/M05 A3012 RMK A01 T10091046  RH  076%=      5-min Rain = 0
KTA1 170922Z 30008KT M01/M05 A3012 RMK A01 T10091045  RH  076%=      5-min Rain = 0
KTA1 170923Z 30008KT M01/M05 A3012 RMK A01 T10091046  RH  076%=      5-min Rain = 0
KTA1 170924Z 30008KT M01/M05 A3012 RMK A01 T10091046  RH  076%=      5-min Rain = 0
KTA1 170925Z 30008KT M01/M05 A3012 RMK A01 T10091046  RH  076%=      5-min Rain = 0
KTA1 170926Z 30007KT M01/M05 A3012 RMK A01 T10091046  RH  076%=      5-min Rain = 0
KTA1 170927Z 30007KT M01/M05 A3012 RMK A01 T10091046  RH  076%=      5-min Rain = 0
KTA1 170928Z 30007KT M01/M05 A3012 RMK A01 T10091047  RH  076%=      5-min Rain = 0
KTA1 170929Z 30007KT M01/M05 A3012 RMK A01 T10091047  RH  076%=      5-min Rain = 0
KTA1 170930Z 30007KT M01/M05 A3012 RMK A01 T10101047  RH  076%=      5-min Rain = 0
KTA1 170931Z 30007KT M01/M05 A3012 RMK A01 T10101047  RH  076%=      5-min Rain = 0
KTA1 170932Z 31008KT M01/M05 A3012 RMK A01 T10111047  RH  076%=      5-min Rain = 0
KTA1 170933Z 30008KT M01/M05 A3012 RMK A01 T10111047  RH  076%=      5-min Rain = 0
KTA1 170934Z 31009KT M01/M05 A3012 RMK A01 T10111047  RH  077%=      5-min Rain = 0
KTA1 170935Z 31009KT M01/M05 A3012 RMK A01 T10101046  RH  076%=      5-min Rain = 0
KTA1 170936Z 31009KT M01/M05 A3012 RMK A01 T10101046  RH  076%=      5-min Rain = 0
KTA1 170937Z 31009KT M01/M05 A3012 RMK A01 T10101047  RH  076%=      5-min Rain = 0
KTA1 170938Z 31009KT M01/M05 A3012 RMK A01 T10091046  RH  076%=      5-min Rain = 0
KTA1 170939Z 31009KT M01/M05 A3012 RMK A01 T10091046  RH  076%=      5-min Rain = 0
KTA1 170940Z 31009KT M01/M05 A3012 RMK A01 T10091046  RH  076%=      5-min Rain = 0
KTA1 170941Z 31010KT M01/M05 A3012 RMK A01 T10091046  RH  076%=      5-min Rain = 0
KTA1 170942Z 31010KT M01/M05 A3012 RMK A01 T10101046  RH  076%=      5-min Rain = 0
KTA1 170943Z 31010KT M01/M05 A3012 RMK A01 T10101046  RH  076%=      5-min Rain = 0
KTA1 170944Z 31010KT M01/M05 A3012 RMK A01 T10101046  RH  076%=      5-min Rain = 0
KTA1 170945Z 32010KT M01/M05 A3012 RMK A01 T10101046  RH  076%=      5-min Rain = 0
KTA1 170946Z 31010KT M01/M05 A3012 RMK A01 T10101046  RH  077%=      5-min Rain = 0
KTA1 170947Z 32011KT M01/M05 A3012 RMK A01 T10101046  RH  076%=      5-min Rain = 0
KTA1 170948Z 32010KT M01/M05 A3012 RMK A01 T10091045  RH  076%=      5-min Rain = 0
KTA1 170949Z 32010KT M01/M05 A3012 RMK A01 T10091045  RH  076%=      5-min Rain = 0
KTA1 170950Z 32009KT M01/M05 A3012 RMK A01 T10091045  RH  076%=      5-min Rain = 0
KTA1 170951Z 32009KT M01/M05 A3012 RMK A01 T10091045  RH  077%=      5-min Rain = 0
KTA1 170952Z 32010KT M01/M05 A3012 RMK A01 T10101045  RH  077%=      5-min Rain = 0
KTA1 170953Z 32009KT M01/M05 A3012 RMK A01 T10091045  RH  077%=      5-min Rain = 0
KTA1 170954Z 31009KT M01/M05 A3012 RMK A01 T10101045  RH  077%=      5-min Rain = 0
KTA1 170955Z 32010KT M01/M05 A3012 RMK A01 T10101045  RH  077%=      5-min Rain = 0
KTA1 170956Z 32009KT M01/M05 A3012 RMK A01 T10101045  RH  078%=      5-min Rain = 0
KTA1 170957Z 32010KT M01/M05 A3012 RMK A01 T10101045  RH  078%=      5-min Rain = 0
KTA1 170958Z 32010KT M01/M05 A3012 RMK A01 T10101045  RH  078%=      5-min Rain = 0
KTA1 170959Z 32009KT M01/M05 A3012 RMK A01 T10101045  RH  078%=      5-min Rain = 0
KTA1 171000Z 32009KT M01/M05 A3012 RMK A01 T10111045  RH  078%=      5-min Rain = 0
KTA1 171001Z 32010KT M01/M04 A3012 RMK A01 T10111044  RH  078%=      5-min Rain = 0
KTA1 171002Z 32009KT M01/M04 A3012 RMK A01 T10111044  RH  078%=      5-min Rain = 0
KTA1 171003Z 31010KT M01/M05 A3012 RMK A01 T10111045  RH  078%=      5-min Rain = 0
KTA1 171004Z 31009KT M01/M04 A3012 RMK A01 T10111044  RH  078%=      5-min Rain = 0
KTA1 171005Z 32009KT M01/M04 A3012 RMK A01 T10111044  RH  078%=      5-min Rain = 0
KTA1 171006Z 32009KT M01/M05 A3012 RMK A01 T10111045  RH  078%=      5-min Rain = 0
KTA1 171007Z 32009KT M01/M05 A3012 RMK A01 T10111045  RH  078%=      5-min Rain = 0
KTA1 171008Z 32008KT M01/M05 A3012 RMK A01 T10111045  RH  078%=      5-min Rain = 0
KTA1 171009Z 32008KT M01/M05 A3012 RMK A01 T10121045  RH  078%=      5-min Rain = 0
KTA1 171010Z 32009KT M01/M05 A3012 RMK A01 T10121045  RH  078%=      5-min Rain = 0
KTA1 171011Z 31009KT M01/M05 A3012 RMK A01 T10121045  RH  078%=      5-min Rain = 0
KTA1 171012Z 31009KT M01/M05 A3012 RMK A01 T10121045  RH  078%=      5-min Rain = 0
KTA1 171013Z 32009KT M01/M05 A3012 RMK A01 T10121045  RH  078%=      5-min Rain = 0
KTA1 171014Z 32009KT M01/M05 A3012 RMK A01 T10121045  RH  078%=      5-min Rain = 0
KTA1 171015Z 32010KT M01/M05 A3012 RMK A01 T10121045  RH  078%=      5-min Rain = 0
KTA1 171016Z 32010KT M01/M05 A3012 RMK A01 T10121045  RH  078%=      5-min Rain = 0
KTA1 171017Z 32010KT M01/M05 A3012 RMK A01 T10121045  RH  078%=      5-min Rain = 0
KTA1 171018Z 32010KT M01/M05 A3012 RMK A01 T10121045  RH  078%=      5-min Rain = 0
KTA1 171019Z 32010KT M01/M05 A3012 RMK A01 T10121045  RH  078%=      5-min Rain = 0
KTA1 171020Z 32010KT M01/M05 A3012 RMK A01 T10121045  RH  078%=      5-min Rain = 0
KTA1 171021Z 32010KT M01/M05 A3012 RMK A01 T10121045  RH  078%=      5-min Rain = 0
KTA1 171022Z 32010KT M01/M05 A3012 RMK A01 T10121045  RH  078%=      5-min Rain = 0
KTA1 171023Z 32010KT M01/M05 A3012 RMK A01 T10121045  RH  078%=      5-min Rain = 0
KTA1 171024Z 32011KT M01/M05 A3012 RMK A01 T10121045  RH  078%=      5-min Rain = 0
KTA1 171025Z 32010KT M01/M05 A3012 RMK A01 T10121045  RH  078%=      5-min Rain = 0
KTA1 171026Z 32010KT M01/M05 A3012 RMK A01 T10121045  RH  078%=      5-min Rain = 0
KTA1 171027Z 32010KT M01/M05 A3012 RMK A01 T10121045  RH  078%=      5-min Rain = 0
KTA1 171028Z 32009KT M01/M05 A3012 RMK A01 T10121045  RH  078%=      5-min Rain = 0
KTA1 171029Z 32009KT M01/M05 A3012 RMK A01 T10121045  RH  078%=      5-min Rain = 0
KTA1 171030Z 32010KT M01/M05 A3012 RMK A01 T10121045  RH  078%=      5-min Rain = 0
KTA1 171031Z 32009KT M01/M05 A3012 RMK A01 T10121045  RH  078%=      5-min Rain = 0
KTA1 171032Z 32009KT M01/M05 A3012 RMK A01 T10121045  RH  078%=      5-min Rain = 0
KTA1 171033Z 32009KT M01/M05 A3012 RMK A01 T10121045  RH  078%=      5-min Rain = 0
KTA1 171034Z 32009KT M01/M05 A3012 RMK A01 T10121045  RH  078%=      5-min Rain = 0
KTA1 171035Z 32009KT M01/M05 A3012 RMK A01 T10121045  RH  078%=      5-min Rain = 0
KTA1 171036Z 32009KT M01/M05 A3012 RMK A01 T10111045  RH  078%=      5-min Rain = 0
KTA1 171037Z 32009KT M01/M05 A3012 RMK A01 T10121045  RH  078%=      5-min Rain = 0
KTA1 171038Z 32009KT M01/M05 A3012 RMK A01 T10121045  RH  078%=      5-min Rain = 0
KTA1 171039Z 32009KT M01/M05 A3012 RMK A01 T10121045  RH  078%=      5-min Rain = 0
KTA1 171040Z 32009KT M01/M05 A3012 RMK A01 T10121045  RH  078%=      5-min Rain = 0
KTA1 171041Z 32009KT M01/M05 A3012 RMK A01 T10121045  RH  079%=      5-min Rain = 0
KTA1 171042Z 32008KT M01/M05 A3012 RMK A01 T10121045  RH  079%=      5-min Rain = 0
KTA1 171043Z 32008KT M01/M04 A3012 RMK A01 T10121044  RH  079%=      5-min Rain = 0
KTA1 171044Z 32008KT M01/M05 A3012 RMK A01 T10131045  RH  079%=      5-min Rain = 0
KTA1 171045Z 32009KT M01/M05 A3012 RMK A01 T10131045  RH  079%=      5-min Rain = 0
KTA1 171046Z 32008KT M01/M05 A3012 RMK A01 T10131045  RH  079%=      5-min Rain = 0
KTA1 171047Z 33009KT M01/M05 A3012 RMK A01 T10141045  RH  079%=      5-min Rain = 0
KTA1 171048Z 33009KT M01/M04 A3012 RMK A01 T10131044  RH  079%=      5-min Rain = 0
KTA1 171049Z 33009KT M01/M05 A3012 RMK A01 T10141045  RH  079%=      5-min Rain = 0
KTA1 171050Z 33008KT M01/M05 A3012 RMK A01 T10141045  RH  079%=      5-min Rain = 0
KTA1 171051Z 33009KT M01/M05 A3012 RMK A01 T10141045  RH  079%=      5-min Rain = 0
KTA1 171052Z 33009KT M01/M05 A3012 RMK A01 T10131045  RH  079%=      5-min Rain = 0
KTA1 171053Z 33008KT M01/M05 A3012 RMK A01 T10141045  RH  079%=      5-min Rain = 0
KTA1 171054Z 33009KT M01/M05 A3012 RMK A01 T10141045  RH  079%=      5-min Rain = 0
KTA1 171055Z 33007KT M01/M04 A3012 RMK A01 T10141044  RH  079%=      5-min Rain = 0
KTA1 171056Z 33008KT M01/M05 A3012 RMK A01 T10141045  RH  080%=      5-min Rain = 0
KTA1 171057Z 33008KT M02/M05 A3012 RMK A01 T10151045  RH  080%=      5-min Rain = 0
KTA1 171058Z 33008KT M02/M05 A3012 RMK A01 T10151045  RH  080%=      5-min Rain = 0
KTA1 171059Z 33008KT M02/M05 A3012 RMK A01 T10151045  RH  080%=      5-min Rain = 0
KTA1 171100Z 33008KT M02/M05 A3012 RMK A01 T10151045  RH  080%=      5-min Rain = 0
KTA1 171101Z 34008KT M02/M05 A3012 RMK A01 T10161045  RH  081%=      5-min Rain = 0
KTA1 171102Z 33008KT M02/M05 A3012 RMK A01 T10161045  RH  081%=      5-min Rain = 0
KTA1 171103Z 33008KT M02/M05 A3012 RMK A01 T10161045  RH  081%=      5-min Rain = 0
KTA1 171104Z 33008KT M02/M05 A3012 RMK A01 T10171045  RH  081%=      5-min Rain = 0
KTA1 171105Z 33008KT M02/M05 A3012 RMK A01 T10171045  RH  081%=      5-min Rain = 0
KTA1 171106Z 33008KT M02/M05 A3012 RMK A01 T10171045  RH  081%=      5-min Rain = 0
KTA1 171107Z 33008KT M02/M05 A3011 RMK A01 T10171045  RH  081%=      5-min Rain = 0
KTA1 171108Z 33008KT M02/M05 A3011 RMK A01 T10171045  RH  082%=      5-min Rain = 0
KTA1 171109Z 33008KT M02/M05 A3011 RMK A01 T10171045  RH  082%=      5-min Rain = 0
KTA1 171110Z 33008KT M02/M04 A3011 RMK A01 T10171044  RH  082%=      5-min Rain = 0
KTA1 171111Z 33008KT M02/M04 A3011 RMK A01 T10171044  RH  082%=      5-min Rain = 0
KTA1 171112Z 33008KT M02/M04 A3011 RMK A01 T10171044  RH  082%=      5-min Rain = 0
KTA1 171113Z 33008KT M02/M04 A3011 RMK A01 T10171044  RH  082%=      5-min Rain = 0
KTA1 171114Z 33008KT M02/M04 A3012 RMK A01 T10171044  RH  082%=      5-min Rain = 0
KTA1 171115Z 33009KT M02/M05 A3012 RMK A01 T10171045  RH  082%=      5-min Rain = 0
KTA1 171116Z 32008KT M02/M05 A3012 RMK A01 T10171045  RH  082%=      5-min Rain = 0
KTA1 171117Z 33008KT M02/M04 A3012 RMK A01 T10171044  RH  082%=      5-min Rain = 0
KTA1 171118Z 33008KT M02/M05 A3012 RMK A01 T10171045  RH  082%=      5-min Rain = 0
KTA1 171119Z 33007KT M02/M05 A3012 RMK A01 T10171045  RH  082%=      5-min Rain = 0
KTA1 171120Z 33008KT M02/M04 A3012 RMK A01 T10171044  RH  081%=      5-min Rain = 0
KTA1 171121Z 32008KT M02/M05 A3012 RMK A01 T10171045  RH  081%=      5-min Rain = 0
KTA1 171122Z 33007KT M02/M05 A3012 RMK A01 T10171045  RH  081%=      5-min Rain = 0
KTA1 171123Z 33007KT M02/M05 A3012 RMK A01 T10171045  RH  081%=      5-min Rain = 0
KTA1 171124Z 33007KT M02/M04 A3012 RMK A01 T10171044  RH  081%=      5-min Rain = 0
KTA1 171125Z 33007KT M02/M05 A3012 RMK A01 T10171045  RH  081%=      5-min Rain = 0
KTA1 171126Z 33008KT M02/M05 A3012 RMK A01 T10181045  RH  082%=      5-min Rain = 0
KTA1 171127Z 33007KT M02/M05 A3012 RMK A01 T10181045  RH  082%=      5-min Rain = 0
KTA1 171128Z 33006KT M02/M05 A3012 RMK A01 T10181045  RH  082%=      5-min Rain = 0
KTA1 171129Z 33007KT M02/M05 A3012 RMK A01 T10181045  RH  082%=      5-min Rain = 0
KTA1 171130Z 32006KT M02/M05 A3012 RMK A01 T10181045  RH  082%=      5-min Rain = 0
KTA1 171131Z 32007KT M02/M05 A3012 RMK A01 T10181045  RH  082%=      5-min Rain = 0
KTA1 171132Z 32007KT M02/M05 A3012 RMK A01 T10191045  RH  082%=      5-min Rain = 0
KTA1 171133Z 33006KT M02/M05 A3012 RMK A01 T10191045  RH  082%=      5-min Rain = 0
KTA1 171134Z 32006KT M02/M05 A3012 RMK A01 T10191046  RH  082%=      5-min Rain = 0
KTA1 171135Z 32007KT M02/M05 A3012 RMK A01 T10191046  RH  082%=      5-min Rain = 0
KTA1 171136Z 32007KT M02/M05 A3012 RMK A01 T10191045  RH  082%=      5-min Rain = 0
KTA1 171137Z 33007KT M02/M05 A3012 RMK A01 T10191045  RH  082%=      5-min Rain = 0
KTA1 171138Z 32007KT M02/M05 A3012 RMK A01 T10191045  RH  082%=      5-min Rain = 0
KTA1 171139Z 32006KT M02/M05 A3012 RMK A01 T10201046  RH  083%=      5-min Rain = 0
KTA1 171140Z 32007KT M02/M05 A3012 RMK A01 T10201046  RH  083%=      5-min Rain = 0
KTA1 171141Z 32008KT M02/M05 A3012 RMK A01 T10201045  RH  083%=      5-min Rain = 0
KTA1 171142Z 33007KT M02/M05 A3012 RMK A01 T10201045  RH  083%=      5-min Rain = 0
KTA1 171143Z 32007KT M02/M05 A3012 RMK A01 T10201045  RH  083%=      5-min Rain = 0
KTA1 171144Z 32008KT M02/M05 A3012 RMK A01 T10201046  RH  083%=      5-min Rain = 0
KTA1 171145Z 32008KT M02/M05 A3012 RMK A01 T10201046  RH  083%=      5-min Rain = 0
KTA1 171146Z 32008KT M02/M05 A3013 RMK A01 T10211046  RH  083%=      5-min Rain = 0
KTA1 171147Z 32008KT M02/M05 A3013 RMK A01 T10211046  RH  083%=      5-min Rain = 0
KTA1 171148Z 32008KT M02/M05 A3013 RMK A01 T10221046  RH  083%=      5-min Rain = 0
KTA1 171149Z 32009KT M02/M05 A3013 RMK A01 T10211046  RH  083%=      5-min Rain = 0
KTA1 171150Z 32008KT M02/M05 A3013 RMK A01 T10211046  RH  083%=      5-min Rain = 0
KTA1 171151Z 32008KT M02/M05 A3013 RMK A01 T10211046  RH  083%=      5-min Rain = 0
KTA1 171152Z 32008KT M02/M05 A3013 RMK A01 T10211046  RH  083%=      5-min Rain = 0
KTA1 171153Z 32008KT M02/M05 A3013 RMK A01 T10211046  RH  083%=      5-min Rain = 0
KTA1 171154Z 32008KT M02/M05 A3012 RMK A01 T10211046  RH  083%=      5-min Rain = 0
KTA1 171155Z 32007KT M02/M05 A3012 RMK A01 T10211046  RH  083%=      5-min Rain = 0
KTA1 171156Z 32007KT M02/M05 A3012 RMK A01 T10211046  RH  083%=      5-min Rain = 0
KTA1 171157Z 32007KT M02/M05 A3012 RMK A01 T10221046  RH  083%=      5-min Rain = 0
KTA1 171158Z 32008KT M02/M05 A3012 RMK A01 T10221046  RH  083%=      5-min Rain = 0
KTA1 171159Z 32008KT M02/M05 A3013 RMK A01 T10221046  RH  083%=      5-min Rain = 0
KTA1 171200Z 32008KT M02/M05 A3012 RMK A01 T10221046  RH  084%=      5-min Rain = 0
KTA1 171201Z 32008KT M02/M05 A3012 RMK A01 T10221046  RH  084%=      5-min Rain = 0
KTA1 171202Z 32008KT M02/M05 A3013 RMK A01 T10221046  RH  084%=      5-min Rain = 0
KTA1 171203Z 32009KT M02/M05 A3013 RMK A01 T10221045  RH  084%=      5-min Rain = 0
KTA1 171204Z 32008KT M02/M05 A3013 RMK A01 T10221046  RH  084%=      5-min Rain = 0
KTA1 171205Z 32008KT M02/M05 A3013 RMK A01 T10221046  RH  084%=      5-min Rain = 0
KTA1 171206Z 32008KT M02/M05 A3013 RMK A01 T10221046  RH  084%=      5-min Rain = 0
KTA1 171207Z 32008KT M02/M05 A3013 RMK A01 T10221046  RH  084%=      5-min Rain = 0
KTA1 171208Z 32008KT M02/M05 A3012 RMK A01 T10221046  RH  084%=      5-min Rain = 0
KTA1 171209Z 32008KT M02/M05 A3012 RMK A01 T10221046  RH  084%=      5-min Rain = 0
KTA1 171210Z 32008KT M02/M05 A3012 RMK A01 T10221046  RH  084%=      5-min Rain = 0
KTA1 171211Z 32008KT M02/M05 A3012 RMK A01 T10221046  RH  084%=      5-min Rain = 0
KTA1 171212Z 32008KT M02/M05 A3012 RMK A01 T10221046  RH  084%=      5-min Rain = 0
KTA1 171213Z 32009KT M02/M05 A3012 RMK A01 T10221046  RH  084%=      5-min Rain = 0
KTA1 171214Z 32008KT M02/M05 A3013 RMK A01 T10221046  RH  084%=      5-min Rain = 0
KTA1 171215Z 32008KT M02/M05 A3013 RMK A01 T10221046  RH  084%=      5-min Rain = 0
KTA1 171216Z 32008KT M02/M05 A3013 RMK A01 T10221046  RH  084%=      5-min Rain = 0
KTA1 171217Z 32008KT M02/M05 A3013 RMK A01 T10221046  RH  084%=      5-min Rain = 0
KTA1 171218Z 32007KT M02/M05 A3013 RMK A01 T10231046  RH  084%=      5-min Rain = 0
KTA1 171219Z 32007KT M02/M05 A3013 RMK A01 T10231046  RH  084%=      5-min Rain = 0
KTA1 171220Z 31008KT M02/M05 A3013 RMK A01 T10231046  RH  084%=      5-min Rain = 0
KTA1 171221Z 32008KT M02/M05 A3013 RMK A01 T10231046  RH  084%=      5-min Rain = 0
KTA1 171222Z 32008KT M02/M05 A3013 RMK A01 T10231046  RH  084%=      5-min Rain = 0
KTA1 171223Z 32009KT M02/M05 A3013 RMK A01 T10231047  RH  084%=      5-min Rain = 0
KTA1 171224Z 32009KT M02/M05 A3013 RMK A01 T10231046  RH  084%=      5-min Rain = 0
KTA1 171225Z 32009KT M02/M05 A3013 RMK A01 T10241047  RH  084%=      5-min Rain = 0
KTA1 171226Z 32009KT M02/M05 A3013 RMK A01 T10241046  RH  084%=      5-min Rain = 0
KTA1 171227Z 32009KT M02/M05 A3013 RMK A01 T10241046  RH  085%=      5-min Rain = 0
KTA1 171228Z 32008KT M02/M05 A3013 RMK A01 T10241046  RH  085%=      5-min Rain = 0
KTA1 171229Z 32009KT M02/M05 A3013 RMK A01 T10241046  RH  085%=      5-min Rain = 0
KTA1 171230Z 32008KT M02/M05 A3013 RMK A01 T10241046  RH  085%=      5-min Rain = 0
KTA1 171231Z 32009KT M02/M05 A3013 RMK A01 T10231046  RH  085%=      5-min Rain = 0
KTA1 171232Z 32008KT M02/M05 A3013 RMK A01 T10231046  RH  085%=      5-min Rain = 0
KTA1 171233Z 32008KT M02/M05 A3013 RMK A01 T10231046  RH  084%=      5-min Rain = 0
KTA1 171234Z 32008KT M02/M05 A3013 RMK A01 T10231045  RH  084%=      5-min Rain = 0
KTA1 171235Z 32008KT M02/M05 A3013 RMK A01 T10221045  RH  084%=      5-min Rain = 0
KTA1 171236Z 32008KT M02/M05 A3013 RMK A01 T10221045  RH  084%=      5-min Rain = 0
KTA1 171237Z 32008KT M02/M05 A3013 RMK A01 T10221046  RH  084%=      5-min Rain = 0
KTA1 171238Z 32008KT M02/M05 A3013 RMK A01 T10221046  RH  084%=      5-min Rain = 0
KTA1 171239Z 32008KT M02/M05 A3013 RMK A01 T10221045  RH  084%=      5-min Rain = 0
KTA1 171240Z 32007KT M02/M05 A3013 RMK A01 T10221045  RH  084%=      5-min Rain = 0
KTA1 171241Z 32007KT M02/M05 A3013 RMK A01 T10221046  RH  084%=      5-min Rain = 0
KTA1 171242Z 32007KT M02/M05 A3013 RMK A01 T10221045  RH  084%=      5-min Rain = 0
KTA1 171243Z 32007KT M02/M05 A3013 RMK A01 T10221045  RH  084%=      5-min Rain = 0
KTA1 171244Z 32007KT M02/M05 A3013 RMK A01 T10221045  RH  084%=      5-min Rain = 0
KTA1 171245Z 32008KT M02/M05 A3013 RMK A01 T10221045  RH  084%=      5-min Rain = 0
KTA1 171246Z 32008KT M02/M05 A3013 RMK A01 T10221046  RH  084%=      5-min Rain = 0
KTA1 171247Z 32008KT M02/M05 A3013 RMK A01 T10221046  RH  084%=      5-min Rain = 0
KTA1 171248Z 32006KT M02/M05 A3013 RMK A01 T10221046  RH  084%=      5-min Rain = 0
KTA1 171249Z 32007KT M02/M05 A3013 RMK A01 T10221046  RH  084%=      5-min Rain = 0
KTA1 171250Z 32007KT M02/M05 A3013 RMK A01 T10231046  RH  084%=      5-min Rain = 0
KTA1 171251Z 32007KT M02/M05 A3013 RMK A01 T10231046  RH  084%=      5-min Rain = 0
KTA1 171252Z 32008KT M02/M05 A3013 RMK A01 T10231046  RH  084%=      5-min Rain = 0
KTA1 171253Z 32007KT M02/M05 A3013 RMK A01 T10231046  RH  084%=      5-min Rain = 0
KTA1 171254Z 32008KT M02/M05 A3013 RMK A01 T10231046  RH  084%=      5-min Rain = 0
KTA1 171255Z 32007KT M02/M05 A3013 RMK A01 T10231045  RH  085%=      5-min Rain = 0
KTA1 171256Z 32007KT M02/M05 A3014 RMK A01 T10241046  RH  085%=      5-min Rain = 0
KTA1 171257Z 32007KT M02/M05 A3014 RMK A01 T10241046  RH  085%=      5-min Rain = 0
KTA1 171258Z 31008KT M02/M05 A3014 RMK A01 T10241046  RH  085%=      5-min Rain = 0
KTA1 171259Z 32008KT M02/M05 A3014 RMK A01 T10241046  RH  085%=      5-min Rain = 0
KTA1 171300Z 32007KT M02/M05 A3014 RMK A01 T10241046  RH  085%=      5-min Rain = 0
KTA1 171301Z 32007KT M02/M05 A3014 RMK A01 T10241046  RH  085%=      5-min Rain = 0
KTA1 171302Z 32008KT M03/M05 A3014 RMK A01 T10251046  RH  085%=      5-min Rain = 0
KTA1 171303Z 32008KT M02/M05 A3014 RMK A01 T10241046  RH  085%=      5-min Rain = 0
KTA1 171304Z 31007KT M03/M05 A3014 RMK A01 T10251046  RH  085%=      5-min Rain = 0
KTA1 171305Z 32008KT M02/M05 A3014 RMK A01 T10241046  RH  085%=      5-min Rain = 0
KTA1 171306Z 32007KT M02/M05 A3014 RMK A01 T10241046  RH  085%=      5-min Rain = 0
KTA1 171307Z 32008KT M02/M05 A3015 RMK A01 T10241046  RH  085%=      5-min Rain = 0
KTA1 171308Z 31008KT M02/M05 A3015 RMK A01 T10241046  RH  085%=      5-min Rain = 0
KTA1 171309Z 32008KT M02/M05 A3015 RMK A01 T10241046  RH  085%=      5-min Rain = 0
KTA1 171310Z 32008KT M02/M05 A3015 RMK A01 T10241046  RH  085%=      5-min Rain = 0
KTA1 171311Z 32008KT M02/M05 A3015 RMK A01 T10241046  RH  085%=      5-min Rain = 0
KTA1 171312Z 32007KT M02/M05 A3015 RMK A01 T10241046  RH  085%=      5-min Rain = 0
KTA1 171313Z 32008KT M02/M05 A3015 RMK A01 T10241046  RH  085%=      5-min Rain = 0
KTA1 171314Z 32008KT M02/M05 A3015 RMK A01 T10241046  RH  085%=      5-min Rain = 0
KTA1 171315Z 32008KT M02/M05 A3015 RMK A01 T10241046  RH  085%=      5-min Rain = 0
KTA1 171316Z 32008KT M02/M05 A3015 RMK A01 T10241046  RH  085%=      5-min Rain = 0
KTA1 171317Z 32007KT M02/M05 A3015 RMK A01 T10241046  RH  085%=      5-min Rain = 0
KTA1 171318Z 32008KT M02/M05 A3015 RMK A01 T10241046  RH  085%=      5-min Rain = 0
KTA1 171319Z 32008KT M02/M05 A3015 RMK A01 T10241047  RH  085%=      5-min Rain = 0
KTA1 171320Z 32008KT M02/M05 A3015 RMK A01 T10241046  RH  084%=      5-min Rain = 0
KTA1 171321Z 32008KT M02/M05 A3015 RMK A01 T10241047  RH  084%=      5-min Rain = 0
KTA1 171322Z 32008KT M02/M05 A3015 RMK A01 T10241047  RH  084%=      5-min Rain = 0
KTA1 171323Z 32007KT M02/M05 A3015 RMK A01 T10241047  RH  084%=      5-min Rain = 0
KTA1 171324Z 32007KT M02/M05 A3015 RMK A01 T10241047  RH  084%=      5-min Rain = 0
KTA1 171325Z 32007KT M02/M05 A3015 RMK A01 T10241047  RH  084%=      5-min Rain = 0
KTA1 171326Z 32007KT M02/M05 A3014 RMK A01 T10241047  RH  084%=      5-min Rain = 0
KTA1 171327Z 32007KT M02/M05 A3014 RMK A01 T10241047  RH  084%=      5-min Rain = 0
KTA1 171328Z 32006KT M03/M05 A3014 RMK A01 T10251047  RH  085%=      5-min Rain = 0
KTA1 171329Z 32006KT M03/M05 A3014 RMK A01 T10251047  RH  085%=      5-min Rain = 0
KTA1 171330Z 33007KT M03/M05 A3015 RMK A01 T10251047  RH  085%=      5-min Rain = 0
KTA1 171331Z 32007KT M03/M05 A3015 RMK A01 T10251047  RH  085%=      5-min Rain = 0
KTA1 171332Z 32007KT M02/M05 A3015 RMK A01 T10241047  RH  084%=      5-min Rain = 0
KTA1 171333Z 33007KT M02/M05 A3015 RMK A01 T10241047  RH  084%=      5-min Rain = 0
KTA1 171334Z 32008KT M02/M05 A3015 RMK A01 T10241047  RH  084%=      5-min Rain = 0
KTA1 171335Z 32008KT M02/M05 A3015 RMK A01 T10241047  RH  084%=      5-min Rain = 0
KTA1 171336Z 33007KT M02/M05 A3015 RMK A01 T10241047  RH  084%=      5-min Rain = 0
KTA1 171337Z 32007KT M02/M05 A3015 RMK A01 T10241047  RH  084%=      5-min Rain = 0
KTA1 171338Z 32007KT M02/M05 A3015 RMK A01 T10241048  RH  084%=      5-min Rain = 0
KTA1 171339Z 32007KT M02/M05 A3015 RMK A01 T10231047  RH  084%=      5-min Rain = 0
KTA1 171340Z 33008KT M02/M05 A3015 RMK A01 T10231047  RH  084%=      5-min Rain = 0
KTA1 171341Z 33008KT M02/M05 A3015 RMK A01 T10241047  RH  084%=      5-min Rain = 0
KTA1 171342Z 33008KT M02/M05 A3015 RMK A01 T10241048  RH  084%=      5-min Rain = 0
KTA1 171343Z 33008KT M02/M05 A3015 RMK A01 T10241048  RH  084%=      5-min Rain = 0
KTA1 171344Z 33008KT M02/M05 A3015 RMK A01 T10241048  RH  084%=      5-min Rain = 0
KTA1 171345Z 33008KT M02/M05 A3015 RMK A01 T10241048  RH  084%=      5-min Rain = 0
KTA1 171346Z 33008KT M02/M05 A3015 RMK A01 T10241048  RH  084%=      5-min Rain = 0
KTA1 171347Z 33009KT M03/M05 A3015 RMK A01 T10251048  RH  084%=      5-min Rain = 0
KTA1 171348Z 33009KT M03/M05 A3015 RMK A01 T10251048  RH  084%=      5-min Rain = 0
KTA1 171349Z 34008KT M03/M05 A3015 RMK A01 T10251048  RH  084%=      5-min Rain = 0
KTA1 171350Z 34007KT M03/M05 A3015 RMK A01 T10251048  RH  084%=      5-min Rain = 0
KTA1 171351Z 34008KT M03/M05 A3015 RMK A01 T10251048  RH  084%=      5-min Rain = 0
KTA1 171352Z 33008KT M03/M05 A3015 RMK A01 T10251048  RH  084%=      5-min Rain = 0
KTA1 171353Z 33008KT M03/M05 A3015 RMK A01 T10251048  RH  084%=      5-min Rain = 0
KTA1 171354Z 33009KT M02/M05 A3015 RMK A01 T10241048  RH  084%=      5-min Rain = 0
KTA1 171355Z 34009KT M02/M05 A3015 RMK A01 T10241048  RH  084%=      5-min Rain = 0
KTA1 171356Z 34009KT M02/M05 A3015 RMK A01 T10241048  RH  083%=      5-min Rain = 0
KTA1 171357Z 34009KT M02/M05 A3015 RMK A01 T10241048  RH  083%=      5-min Rain = 0
KTA1 171358Z 34008KT M02/M05 A3015 RMK A01 T10231049  RH  083%=      5-min Rain = 0
KTA1 171359Z 34008KT M02/M05 A3015 RMK A01 T10231049  RH  083%=      5-min Rain = 0
KTA1 171400Z 33008KT M02/M05 A3015 RMK A01 T10241049  RH  083%=      5-min Rain = 0
KTA1 171401Z 34008KT M02/M05 A3015 RMK A01 T10231049  RH  083%=      5-min Rain = 0
KTA1 171402Z 34008KT M02/M05 A3015 RMK A01 T10241049  RH  083%=      5-min Rain = 0
KTA1 171403Z 34007KT M02/M05 A3015 RMK A01 T10241049  RH  083%=      5-min Rain = 0
KTA1 171404Z 34008KT M02/M05 A3015 RMK A01 T10241049  RH  083%=      5-min Rain = 0
KTA1 171405Z 34008KT M02/M05 A3015 RMK A01 T10241049  RH  083%=      5-min Rain = 0
KTA1 171406Z 34008KT M02/M05 A3015 RMK A01 T10241049  RH  083%=      5-min Rain = 0
KTA1 171407Z 34008KT M02/M05 A3015 RMK A01 T10241049  RH  083%=      5-min Rain = 0
KTA1 171408Z 34007KT M02/M05 A3015 RMK A01 T10231049  RH  083%=      5-min Rain = 0
KTA1 171409Z 34007KT M02/M05 A3015 RMK A01 T10231049  RH  083%=      5-min Rain = 0
KTA1 171410Z 34007KT M02/M05 A3015 RMK A01 T10231048  RH  082%=      5-min Rain = 0
KTA1 171411Z 34007KT M02/M05 A3015 RMK A01 T10221048  RH  082%=      5-min Rain = 0
KTA1 171412Z 34007KT M02/M05 A3015 RMK A01 T10221049  RH  082%=      5-min Rain = 0
KTA1 171413Z 34007KT M02/M05 A3015 RMK A01 T10221049  RH  082%=      5-min Rain = 0
KTA1 171414Z 34007KT M02/M05 A3015 RMK A01 T10221049  RH  082%=      5-min Rain = 0
KTA1 171415Z 34007KT M02/M05 A3015 RMK A01 T10221049  RH  082%=      5-min Rain = 0
KTA1 171416Z 34006KT M02/M05 A3015 RMK A01 T10221049  RH  082%=      5-min Rain = 0
KTA1 171417Z 34007KT M02/M05 A3015 RMK A01 T10221048  RH  082%=      5-min Rain = 0
KTA1 171418Z 34006KT M02/M05 A3015 RMK A01 T10221048  RH  082%=      5-min Rain = 0
KTA1 171419Z 34006KT M02/M05 A3015 RMK A01 T10221048  RH  082%=      5-min Rain = 0
KTA1 171420Z 34006KT M02/M05 A3015 RMK A01 T10221048  RH  082%=      5-min Rain = 0
KTA1 171421Z 34006KT M02/M05 A3015 RMK A01 T10221048  RH  082%=      5-min Rain = 0
KTA1 171422Z 34006KT M02/M05 A3015 RMK A01 T10211047  RH  082%=      5-min Rain = 0
KTA1 171423Z 34006KT M02/M05 A3015 RMK A01 T10211047  RH  082%=      5-min Rain = 0
KTA1 171424Z 34006KT M02/M05 A3015 RMK A01 T10211047  RH  082%=      5-min Rain = 0
KTA1 171425Z 34006KT M02/M05 A3015 RMK A01 T10211047  RH  082%=      5-min Rain = 0
KTA1 171426Z 34006KT M02/M05 A3015 RMK A01 T10201046  RH  082%=      5-min Rain = 0
KTA1 171427Z 34006KT M02/M05 A3015 RMK A01 T10191046  RH  082%=      5-min Rain = 0
KTA1 171428Z 34005KT M02/M05 A3015 RMK A01 T10181046  RH  081%=      5-min Rain = 0
KTA1 171429Z 34005KT M02/M05 A3015 RMK A01 T10171045  RH  081%=      5-min Rain = 0
KTA1 171430Z 34005KT M02/M05 A3015 RMK A01 T10161045  RH  081%=      5-min Rain = 0
KTA1 171431Z 34005KT M02/M05 A3015 RMK A01 T10161045  RH  080%=      5-min Rain = 0
KTA1 171432Z 34005KT M02/M05 A3015 RMK A01 T10151045  RH  080%=      5-min Rain = 0
KTA1 171433Z 34005KT M01/M05 A3015 RMK A01 T10141045  RH  079%=      5-min Rain = 0
KTA1 171434Z 34005KT M01/M05 A3015 RMK A01 T10131045  RH  079%=      5-min Rain = 0
KTA1 171435Z 34004KT M01/M04 A3015 RMK A01 T10111044  RH  079%=      5-min Rain = 0
KTA1 171436Z 33005KT M01/M04 A3015 RMK A01 T10111044  RH  078%=      5-min Rain = 0
KTA1 171437Z 33004KT M01/M04 A3015 RMK A01 T10101043  RH  078%=      5-min Rain = 0
KTA1 171438Z 33004KT M01/M04 A3015 RMK A01 T10091043  RH  078%=      5-min Rain = 0
KTA1 171439Z 33003KT M01/M04 A3015 RMK A01 T10081043  RH  077%=      5-min Rain = 0
KTA1 171440Z 32003KT M01/M04 A3016 RMK A01 T10081043  RH  077%=      5-min Rain = 0
KTA1 171441Z 32004KT M01/M04 A3016 RMK A01 T10071042  RH  077%=      5-min Rain = 0
KTA1 171442Z 32004KT M01/M04 A3016 RMK A01 T10071042  RH  077%=      5-min Rain = 0
KTA1 171443Z 32005KT M01/M04 A3016 RMK A01 T10071044  RH  076%=      5-min Rain = 0
KTA1 171444Z 31004KT M01/M04 A3016 RMK A01 T10081044  RH  076%=      5-min Rain = 0
KTA1 171445Z 31005KT M01/M04 A3016 RMK A01 T10081044  RH  077%=      5-min Rain = 0
KTA1 171446Z 31004KT M01/M04 A3016 RMK A01 T10081043  RH  077%=      5-min Rain = 0
KTA1 171447Z 30004KT M01/M04 A3016 RMK A01 T10081043  RH  077%=      5-min Rain = 0
KTA1 171448Z 30004KT M01/M04 A3016 RMK A01 T10081043  RH  077%=      5-min Rain = 0
KTA1 171449Z 30004KT M01/M04 A3016 RMK A01 T10071043  RH  077%=      5-min Rain = 0
KTA1 171450Z 30004KT M01/M04 A3016 RMK A01 T10071042  RH  077%=      5-min Rain = 0
KTA1 171451Z 30004KT M01/M04 A3017 RMK A01 T10071042  RH  077%=      5-min Rain = 0
KTA1 171452Z 30005KT M01/M04 A3017 RMK A01 T10061042  RH  077%=      5-min Rain = 0
KTA1 171453Z 30006KT M01/M04 A3017 RMK A01 T10061042  RH  076%=      5-min Rain = 0
KTA1 171454Z 30006KT M01/M04 A3017 RMK A01 T10051042  RH  076%=      5-min Rain = 0
KTA1 171455Z 30006KT M00/M04 A3017 RMK A01 T10041041  RH  076%=      5-min Rain = 0
KTA1 171456Z 31006KT M00/M04 A3017 RMK A01 T10041041  RH  076%=      5-min Rain = 0
KTA1 171457Z 31007KT M00/M04 A3017 RMK A01 T10031041  RH  075%=      5-min Rain = 0
KTA1 171458Z 31006KT M00/M04 A3017 RMK A01 T10031042  RH  075%=      5-min Rain = 0
KTA1 171459Z 31006KT M00/M04 A3018 RMK A01 T10021042  RH  074%=      5-min Rain = 0
KTA1 171500Z 31005KT M00/M04 A3018 RMK A01 T10021042  RH  074%=      5-min Rain = 0
KTA1 171501Z 31005KT M00/M04 A3018 RMK A01 T10011041  RH  074%=      5-min Rain = 0
KTA1 171502Z 31006KT 00/04 A3018 RMK A01 T00-00-40  RH  075%=      5-min Rain = 0
KTA1 171503Z 32007KT 00/04 A3018 RMK A01 T00000-39  RH  075%=      5-min Rain = 0
KTA1 171504Z 32007KT 00/M04 A3019 RMK A01 T00011039  RH  075%=      5-min Rain = 0
KTA1 171505Z 32007KT 00/M04 A3019 RMK A01 T00021038  RH  075%=      5-min Rain = 0
KTA1 171506Z 33007KT 00/M04 A3019 RMK A01 T00031038  RH  074%=      5-min Rain = 0
KTA1 171507Z 32007KT 00/M04 A3019 RMK A01 T00031038  RH  074%=      5-min Rain = 0
KTA1 171508Z 33007KT 00/M04 A3019 RMK A01 T00041038  RH  073%=      5-min Rain = 0
KTA1 171509Z 33007KT 00/M04 A3019 RMK A01 T00041039  RH  073%=      5-min Rain = 0
KTA1 171510Z 33006KT 00/M04 A3019 RMK A01 T00041039  RH  073%=      5-min Rain = 0
KTA1 171511Z 33006KT 01/M04 A3019 RMK A01 T00051038  RH  073%=      5-min Rain = 0
KTA1 171512Z 33007KT 01/M04 A3019 RMK A01 T00061039  RH  072%=      5-min Rain = 0
KTA1 171513Z 33008KT 01/M04 A3019 RMK A01 T00061040  RH  072%=      5-min Rain = 0
KTA1 171514Z 33007KT 01/M04 A3019 RMK A01 T00051040  RH  072%=      5-min Rain = 0
KTA1 171515Z 33007KT 01/M04 A3019 RMK A01 T00051039  RH  072%=      5-min Rain = 0
KTA1 171516Z 33007KT 01/M04 A3019 RMK A01 T00061038  RH  072%=      5-min Rain = 0
KTA1 171517Z 33007KT 01/M04 A3019 RMK A01 T00071037  RH  072%=      5-min Rain = 0
KTA1 171518Z 33007KT 01/M04 A3019 RMK A01 T00081037  RH  072%=      5-min Rain = 0
KTA1 171519Z 34006KT 01/M04 A3019 RMK A01 T00081037  RH  072%=      5-min Rain = 0
KTA1 171520Z 33006KT 01/M04 A3019 RMK A01 T00091037  RH  072%=      5-min Rain = 0
KTA1 171521Z 34006KT 01/M04 A3019 RMK A01 T00101035  RH  072%=      5-min Rain = 0
KTA1 171522Z 34007KT 01/M04 A3019 RMK A01 T00111035  RH  071%=      5-min Rain = 0
KTA1 171523Z 34006KT 01/M04 A3019 RMK A01 T00121035  RH  071%=      5-min Rain = 0
KTA1 171524Z 35005KT 01/M04 A3019 RMK A01 T00121035  RH  071%=      5-min Rain = 0
KTA1 171525Z 34005KT 01/M03 A3019 RMK A01 T00141033  RH  071%=      5-min Rain = 0
KTA1 171526Z 33005KT 01/M03 A3019 RMK A01 T00141034  RH  070%=      5-min Rain = 0
KTA1 171527Z 34006KT 02/M03 A3019 RMK A01 T00151034  RH  070%=      5-min Rain = 0
KTA1 171528Z 34006KT 02/M03 A302 RMK A01 T00151033  RH  070%=      5-min Rain = 0
KTA1 171529Z 35006KT 02/M03 A302 RMK A01 T00161032  RH  070%=      5-min Rain = 0
KTA1 171530Z 34006KT 02/M03 A302 RMK A01 T00171033  RH  069%=      5-min Rain = 0
KTA1 171531Z 35005KT 02/M03 A302 RMK A01 T00171034  RH  069%=      5-min Rain = 0
KTA1 171532Z 35006KT 02/M03 A302 RMK A01 T00181033  RH  069%=      5-min Rain = 0
KTA1 171533Z 35006KT 02/M03 A302 RMK A01 T00181033  RH  069%=      5-min Rain = 0
KTA1 171534Z 36006KT 02/M03 A302 RMK A01 T00191033  RH  068%=      5-min Rain = 0
KTA1 171535Z 36006KT 02/M03 A302 RMK A01 T00201032  RH  068%=      5-min Rain = 0
KTA1 171536Z 35006KT 02/M03 A302 RMK A01 T00211033  RH  068%=      5-min Rain = 0
KTA1 171537Z 36006KT 02/M03 A302 RMK A01 T00221033  RH  067%=      5-min Rain = 0
KTA1 171538Z 36006KT 02/M03 A302 RMK A01 T00221033  RH  067%=      5-min Rain = 0
KTA1 171539Z 00006KT 02/M03 A302 RMK A01 T00231033  RH  067%=      5-min Rain = 0
KTA1 171540Z 00006KT 02/M03 A302 RMK A01 T00241031  RH  067%=      5-min Rain = 0
KTA1 171541Z 00005KT 03/M03 A302 RMK A01 T00261029  RH  067%=      5-min Rain = 0
KTA1 171542Z 01006KT 03/M03 A302 RMK A01 T00281029  RH  066%=      5-min Rain = 0
KTA1 171543Z 01005KT 03/M03 A302 RMK A01 T00291031  RH  064%=      5-min Rain = 0
KTA1 171544Z 01005KT 03/M03 A302 RMK A01 T00301031  RH  064%=      5-min Rain = 0
KTA1 171545Z 01005KT 03/M03 A302 RMK A01 T00311030  RH  064%=      5-min Rain = 0
KTA1 171546Z 02006KT 03/M03 A302 RMK A01 T00321031  RH  063%=      5-min Rain = 0
KTA1 171547Z 01006KT 03/M03 A302 RMK A01 T00331033  RH  062%=      5-min Rain = 0
KTA1 171548Z 01005KT 04/M04 A302 RMK A01 T00351035  RH  060%=      5-min Rain = 0
KTA1 171549Z 02006KT 04/M03 A302 RMK A01 T00361034  RH  060%=      5-min Rain = 0
KTA1 171550Z 03007KT 04/M03 A302 RMK A01 T00381034  RH  059%=      5-min Rain = 0
KTA1 171551Z 03006KT 04/M04 A302 RMK A01 T00391037  RH  058%=      5-min Rain = 0
KTA1 171552Z 03007KT 04/M04 A302 RMK A01 T00401038  RH  057%=      5-min Rain = 0
KTA1 171553Z 03007KT 04/M04 A302 RMK A01 T00411039  RH  056%=      5-min Rain = 0
KTA1 171554Z 03007KT 04/M04 A302 RMK A01 T00411040  RH  055%=      5-min Rain = 0
KTA1 171555Z 04008KT 04/M04 A302 RMK A01 T00421039  RH  055%=      5-min Rain = 0
KTA1 171556Z 04007KT 04/M04 A302 RMK A01 T00431039  RH  055%=      5-min Rain = 0
KTA1 171557Z 04007KT 05/M04 A302 RMK A01 T00451038  RH  055%=      5-min Rain = 0
KTA1 171558Z 04006KT 05/M04 A302 RMK A01 T00471036  RH  055%=      5-min Rain = 0
KTA1 171559Z 04008KT 05/M04 A302 RMK A01 T00491036  RH  054%=      5-min Rain = 0
KTA1 171600Z 04008KT 05/M04 A302 RMK A01 T00501037  RH  053%=      5-min Rain = 0
KTA1 171601Z 05007KT 05/M04 A302 RMK A01 T00501038  RH  053%=      5-min Rain = 0
KTA1 171602Z 05008KT 05/M04 A302 RMK A01 T00521037  RH  053%=      5-min Rain = 0
KTA1 171603Z 05009KT 05/M04 A302 RMK A01 T00531038  RH  052%=      5-min Rain = 0
KTA1 171604Z 05008KT 05/M04 A302 RMK A01 T00531039  RH  052%=      5-min Rain = 0
KTA1 171605Z 05008KT 05/M04 A302 RMK A01 T00541038  RH  051%=      5-min Rain = 0
KTA1 171606Z 06009KT 05/M04 A302 RMK A01 T00541039  RH  051%=      5-min Rain = 0
KTA1 171607Z 06009KT 06/M04 A302 RMK A01 T00551039  RH  051%=      5-min Rain = 0
KTA1 171608Z 06010KT 06/M04 A302 RMK A01 T00551039  RH  051%=      5-min Rain = 0
KTA1 171609Z 06010KT 06/M04 A302 RMK A01 T00551039  RH  051%=      5-min Rain = 0
KTA1 171610Z 06011KT 06/M04 A302 RMK A01 T00561039  RH  051%=      5-min Rain = 0
KTA1 171611Z 06010KT 06/M04 A302 RMK A01 T00551039  RH  051%=      5-min Rain = 0
KTA1 171612Z 06010KT 06/M04 A302 RMK A01 T00561038  RH  051%=      5-min Rain = 0
KTA1 171613Z 06010KT 06/M04 A302 RMK A01 T00561037  RH  051%=      5-min Rain = 0
KTA1 171614Z 06009KT 06/M04 A302 RMK A01 T00571036  RH  051%=      5-min Rain = 0
KTA1 171615Z 06010KT 06/M04 A302 RMK A01 T00581035  RH  051%=      5-min Rain = 0
KTA1 171616Z 07010KT 06/M04 A302 RMK A01 T00591035  RH  051%=      5-min Rain = 0
KTA1 171617Z 06010KT 06/M03 A302 RMK A01 T00601034  RH  051%=      5-min Rain = 0
KTA1 171618Z 07009KT 06/M04 A302 RMK A01 T00611035  RH  050%=      5-min Rain = 0
KTA1 171619Z 07011KT 06/M03 A3019 RMK A01 T00631034  RH  050%=      5-min Rain = 0
KTA1 171620Z 08011KT 06/M03 A3019 RMK A01 T00641034  RH  049%=      5-min Rain = 0
KTA1 171621Z 08011KT 07/M04 A3019 RMK A01 T00651035  RH  049%=      5-min Rain = 0
KTA1 171622Z 07009KT 07/M03 A3019 RMK A01 T00651034  RH  049%=      5-min Rain = 0
KTA1 171623Z 08011KT 07/M03 A3019 RMK A01 T00671032  RH  049%=      5-min Rain = 0
KTA1 171624Z 07012KT 07/M03 A3019 RMK A01 T00671034  RH  049%=      5-min Rain = 0
KTA1 171625Z 08012KT 07/M04 A3019 RMK A01 T00671035  RH  048%=      5-min Rain = 0
KTA1 171626Z 07011KT 07/M04 A3019 RMK A01 T00671035  RH  048%=      5-min Rain = 0
KTA1 171627Z 08011KT 07/M03 A3019 RMK A01 T00661034  RH  049%=      5-min Rain = 0
KTA1 171628Z 08013KT 07/M03 A3019 RMK A01 T00671034  RH  049%=      5-min Rain = 0
KTA1 171629Z 08012KT 07/M04 A3019 RMK A01 T00671035  RH  048%=      5-min Rain = 0
KTA1 171630Z 08012KT 07/M04 A3019 RMK A01 T00671035  RH  048%=      5-min Rain = 0
KTA1 171631Z 08012KT 07/M04 A3019 RMK A01 T00661035  RH  048%=      5-min Rain = 0
KTA1 171632Z 07012KT 07/M04 A3019 RMK A01 T00671035  RH  048%=      5-min Rain = 0
KTA1 171633Z 08011KT 07/M03 A3019 RMK A01 T00671034  RH  048%=      5-min Rain = 0
KTA1 171634Z 08011KT 07/M03 A3019 RMK A01 T00681034  RH  048%=      5-min Rain = 0
KTA1 171635Z 08013KT 07/M03 A3019 RMK A01 T00691033  RH  048%=      5-min Rain = 0
KTA1 171636Z 08011KT 07/M03 A3019 RMK A01 T00681034  RH  048%=      5-min Rain = 0
KTA1 171637Z 08012KT 07/M03 A3019 RMK A01 T00691033  RH  048%=      5-min Rain = 0
KTA1 171638Z 08014KT 07/M03 A3019 RMK A01 T00701033  RH  048%=      5-min Rain = 0
KTA1 171639Z 08012KT 07/M03 A3018 RMK A01 T00701033  RH  048%=      5-min Rain = 0
KTA1 171640Z 08013KT 07/M03 A3018 RMK A01 T00701034  RH  048%=      5-min Rain = 0
KTA1 171641Z 08011KT 07/M03 A3019 RMK A01 T00701033  RH  048%=      5-min Rain = 0
KTA1 171642Z 08010KT 07/M03 A3019 RMK A01 T00721031  RH  048%=      5-min Rain = 0
KTA1 171643Z 09012KT 07/M03 A3019 RMK A01 T00731031  RH  048%=      5-min Rain = 0
KTA1 171644Z 08013KT 07/M03 A3019 RMK A01 T00741032  RH  047%=      5-min Rain = 0
KTA1 171645Z 09013KT 07/M03 A3019 RMK A01 T00731033  RH  047%=      5-min Rain = 0
KTA1 171646Z 09012KT 07/M03 A3019 RMK A01 T00721034  RH  047%=      5-min Rain = 0
KTA1 171647Z 08012KT 07/M03 A3019 RMK A01 T00721032  RH  047%=      5-min Rain = 0
KTA1 171648Z 08012KT 07/M03 A3018 RMK A01 T00731032  RH  047%=      5-min Rain = 0
KTA1 171649Z 08012KT 07/M03 A3018 RMK A01 T00731032  RH  047%=      5-min Rain = 0
KTA1 171650Z 08013KT 07/M03 A3018 RMK A01 T00731033  RH  047%=      5-min Rain = 0
KTA1 171651Z 08011KT 07/M03 A3018 RMK A01 T00731032  RH  047%=      5-min Rain = 0
KTA1 171652Z 08011KT 07/M03 A3018 RMK A01 T00731031  RH  047%=      5-min Rain = 0
KTA1 171653Z 09010KT 07/M03 A3018 RMK A01 T00741030  RH  048%=      5-min Rain = 0
KTA1 171654Z 09010KT 08/M03 A3018 RMK A01 T00751032  RH  047%=      5-min Rain = 0
KTA1 171655Z 08011KT 08/M03 A3018 RMK A01 T00751031  RH  047%=      5-min Rain = 0
KTA1 171656Z 08012KT 08/M03 A3018 RMK A01 T00751031  RH  047%=      5-min Rain = 0
KTA1 171657Z 08011KT 08/M03 A3018 RMK A01 T00761031  RH  047%=      5-min Rain = 0
KTA1 171658Z 08012KT 08/M03 A3018 RMK A01 T00771031  RH  046%=      5-min Rain = 0
KTA1 171659Z 09012KT 08/M03 A3018 RMK A01 T00771032  RH  046%=      5-min Rain = 0
KTA1 171700Z 09011KT 08/M03 A3018 RMK A01 T00761031  RH  046%=      5-min Rain = 0
KTA1 171701Z 08010KT 08/M03 A3018 RMK A01 T00761031  RH  047%=      5-min Rain = 0
KTA1 171702Z 08011KT 08/M03 A3018 RMK A01 T00771030  RH  047%=      5-min Rain = 0
KTA1 171703Z 08009KT 08/M03 A3018 RMK A01 T00781030  RH  046%=      5-min Rain = 0
KTA1 171704Z 08012KT 08/M03 A3018 RMK A01 T00791029  RH  046%=      5-min Rain = 0
KTA1 171705Z 09010KT 08/M03 A3018 RMK A01 T00801030  RH  046%=      5-min Rain = 0
KTA1 171706Z 09010KT 08/M03 A3018 RMK A01 T00791030  RH  046%=      5-min Rain = 0
KTA1 171707Z 08011KT 08/M03 A3018 RMK A01 T00791030  RH  046%=      5-min Rain = 0
KTA1 171708Z 09011KT 08/M03 A3018 RMK A01 T00791029  RH  046%=      5-min Rain = 0
KTA1 171709Z 08009G14KT 08/M03 A3019 RMK A01 T00801029  RH  046%=      5-min Rain = 0
KTA1 171710Z 09012KT 08/M03 A3019 RMK A01 T00801029  RH  046%=      5-min Rain = 0
KTA1 171711Z 09011KT 08/M03 A3019 RMK A01 T00801031  RH  045%=      5-min Rain = 0
KTA1 171712Z 09011KT 08/M03 A3019 RMK A01 T00811031  RH  045%=      5-min Rain = 0
KTA1 171713Z 09011KT 08/M03 A3019 RMK A01 T00801032  RH  045%=      5-min Rain = 0
KTA1 171714Z 09011KT 08/M03 A3019 RMK A01 T00801031  RH  045%=      5-min Rain = 0
KTA1 171715Z 09010KT 08/M03 A3019 RMK A01 T00801031  RH  045%=      5-min Rain = 0
KTA1 171716Z 09011KT 08/M03 A3019 RMK A01 T00821031  RH  045%=      5-min Rain = 0
KTA1 171717Z 09012KT 08/M03 A3019 RMK A01 T00821033  RH  044%=      5-min Rain = 0
KTA1 171718Z 09011KT 08/M03 A3019 RMK A01 T00821033  RH  044%=      5-min Rain = 0
KTA1 171719Z 10011KT 08/M03 A3019 RMK A01 T00831033  RH  044%=      5-min Rain = 0
KTA1 171720Z 10011KT 08/M03 A3019 RMK A01 T00831033  RH  044%=      5-min Rain = 0
KTA1 171721Z 10010KT 08/M03 A3019 RMK A01 T00841032  RH  044%=      5-min Rain = 0
KTA1 171722Z 10009KT 08/M03 A3019 RMK A01 T00841031  RH  044%=      5-min Rain = 0
KTA1 171723Z 08009KT 09/M03 A3019 RMK A01 T00851029  RH  045%=      5-min Rain = 0
KTA1 171724Z 10008KT 09/M03 A3019 RMK A01 T00861029  RH  044%=      5-min Rain = 0
KTA1 171725Z 11010KT 09/M03 A3019 RMK A01 T00861030  RH  044%=      5-min Rain = 0
KTA1 171726Z 10010KT 09/M03 A3018 RMK A01 T00871030  RH  044%=      5-min Rain = 0
KTA1 171727Z 09008KT 09/M03 A3018 RMK A01 T00861030  RH  044%=      5-min Rain = 0
KTA1 171728Z 08008KT 09/M03 A3018 RMK A01 T00861029  RH  044%=      5-min Rain = 0
KTA1 171729Z 08009KT 09/M03 A3018 RMK A01 T00861029  RH  044%=      5-min Rain = 0
KTA1 171730Z 10010KT 09/M03 A3018 RMK A01 T00861029  RH  044%=      5-min Rain = 0
KTA1 171731Z 09011KT 09/M03 A3018 RMK A01 T00851030  RH  044%=      5-min Rain = 0
KTA1 171732Z 09010KT 09/M03 A3018 RMK A01 T00851031  RH  044%=      5-min Rain = 0
KTA1 171733Z 10010KT 09/M03 A3018 RMK A01 T00851030  RH  044%=      5-min Rain = 0
KTA1 171734Z 10009KT 09/M03 A3018 RMK A01 T00851030  RH  044%=      5-min Rain = 0
KTA1 171735Z 08009KT 09/M03 A3018 RMK A01 T00861029  RH  044%=      5-min Rain = 0
KTA1 171736Z 09010KT 09/M03 A3018 RMK A01 T00881028  RH  044%=      5-min Rain = 0
KTA1 171737Z 09011KT 09/M03 A3018 RMK A01 T00881030  RH  043%=      5-min Rain = 0
KTA1 171738Z 10010KT 09/M03 A3018 RMK A01 T00861031  RH  044%=      5-min Rain = 0
KTA1 171739Z 09008KT 09/M03 A3018 RMK A01 T00861029  RH  044%=      5-min Rain = 0
KTA1 171740Z 09008KT 09/M03 A3018 RMK A01 T00861029  RH  044%=      5-min Rain = 0
KTA1 171741Z 08009KT 09/M03 A3018 RMK A01 T00871027  RH  045%=      5-min Rain = 0
KTA1 171742Z 09009KT 09/M03 A3018 RMK A01 T00881026  RH  045%=      5-min Rain = 0
KTA1 171743Z 10010KT 09/M03 A3018 RMK A01 T00891027  RH  044%=      5-min Rain = 0
KTA1 171744Z 10009KT 09/M03 A3017 RMK A01 T00891027  RH  044%=      5-min Rain = 0
KTA1 171745Z 10009KT 09/M03 A3017 RMK A01 T00901027  RH  044%=      5-min Rain = 0
KTA1 171746Z 09009KT 09/M03 A3017 RMK A01 T00901027  RH  044%=      5-min Rain = 0
KTA1 171747Z 08009KT 09/M03 A3017 RMK A01 T00921026  RH  043%=      5-min Rain = 0
KTA1 171748Z 09010KT 09/M03 A3017 RMK A01 T00931026  RH  043%=      5-min Rain = 0
KTA1 171749Z 09010KT 09/M03 A3017 RMK A01 T00931027  RH  043%=      5-min Rain = 0
KTA1 171750Z 09009KT 09/M03 A3017 RMK A01 T00921028  RH  043%=      5-min Rain = 0
KTA1 171751Z 08009KT 09/M03 A3017 RMK A01 T00911027  RH  043%=      5-min Rain = 0
KTA1 171752Z 08008KT 09/M03 A3017 RMK A01 T00911026  RH  044%=      5-min Rain = 0
KTA1 171753Z 10009KT 09/M03 A3017 RMK A01 T00931026  RH  043%=      5-min Rain = 0
KTA1 171754Z 10009KT 09/M03 A3017 RMK A01 T00931026  RH  043%=      5-min Rain = 0
KTA1 171755Z 09007KT 09/M03 A3017 RMK A01 T00931026  RH  043%=      5-min Rain = 0
KTA1 171756Z 09008KT 09/M02 A3017 RMK A01 T00941024  RH  043%=      5-min Rain = 0
KTA1 171757Z 10008KT 10/M02 A3017 RMK A01 T00951024  RH  043%=      5-min Rain = 0
KTA1 171758Z 08008KT 10/M03 A3017 RMK A01 T00961025  RH  043%=      5-min Rain = 0
KTA1 171759Z 09007KT 10/M02 A3017 RMK A01 T00971024  RH  043%=      5-min Rain = 0
KTA1 171800Z 08009KT 10/M02 A3017 RMK A01 T01001024  RH  042%=      5-min Rain = 0
KTA1 171801Z 09009KT 10/M02 A3017 RMK A01 T01001024  RH  042%=      5-min Rain = 0
KTA1 171802Z 09009KT 10/M03 A3017 RMK A01 T00991025  RH  042%=      5-min Rain = 0
KTA1 171803Z 09010KT 10/M03 A3017 RMK A01 T00971029  RH  041%=      5-min Rain = 0
KTA1 171804Z 09011KT 10/M03 A3017 RMK A01 T00961029  RH  041%=      5-min Rain = 0
KTA1 171805Z 09009KT 10/M03 A3017 RMK A01 T00971028  RH  042%=      5-min Rain = 0
KTA1 171806Z 08009KT 10/M03 A3017 RMK A01 T00981027  RH  041%=      5-min Rain = 0
KTA1 171807Z 08009KT 10/M03 A3017 RMK A01 T00981027  RH  041%=      5-min Rain = 0
KTA1 171808Z 07008KT 10/M03 A3017 RMK A01 T00981025  RH  042%=      5-min Rain = 0
KTA1 171809Z 08010KT 10/M03 A3017 RMK A01 T00981025  RH  042%=      5-min Rain = 0
KTA1 171810Z 08007KT 10/M03 A3017 RMK A01 T00991027  RH  041%=      5-min Rain = 0
KTA1 171811Z 08007KT 10/M03 A3017 RMK A01 T00991025  RH  042%=      5-min Rain = 0
KTA1 171812Z 08009KT 10/M03 A3017 RMK A01 T01011025  RH  041%=      5-min Rain = 0
KTA1 171813Z 09008KT 10/M03 A3017 RMK A01 T01011027  RH  041%=      5-min Rain = 0
KTA1 171814Z 08006KT 10/M03 A3017 RMK A01 T01011027  RH  041%=      5-min Rain = 0
KTA1 171815Z 10009KT 10/M03 A3016 RMK A01 T01021025  RH  041%=      5-min Rain = 0
KTA1 171816Z 09010KT 10/M03 A3016 RMK A01 T01041028  RH  040%=      5-min Rain = 0
KTA1 171817Z 09010KT 10/M03 A3016 RMK A01 T01021031  RH  039%=      5-min Rain = 0
KTA1 171818Z 08008KT 10/M03 A3016 RMK A01 T01011029  RH  040%=      5-min Rain = 0
KTA1 171819Z 09009KT 10/M03 A3016 RMK A01 T01011029  RH  040%=      5-min Rain = 0
KTA1 171820Z 08007KT 10/M03 A3016 RMK A01 T01011029  RH  040%=      5-min Rain = 0
KTA1 171821Z 08007KT 10/M03 A3016 RMK A01 T01031027  RH  040%=      5-min Rain = 0
KTA1 171822Z 09007KT 11/M03 A3016 RMK A01 T01051026  RH  040%=      5-min Rain = 0
KTA1 171823Z 09009KT 11/M03 A3016 RMK A01 T01071027  RH  039%=      5-min Rain = 0
KTA1 171824Z 10008KT 11/M03 A3016 RMK A01 T01071030  RH  038%=      5-min Rain = 0
KTA1 171825Z 07008KT 11/M03 A3016 RMK A01 T01061031  RH  038%=      5-min Rain = 0
KTA1 171826Z 07008KT 11/M03 A3016 RMK A01 T01061030  RH  039%=      5-min Rain = 0
KTA1 171827Z 10009KT 11/M03 A3016 RMK A01 T01061029  RH  039%=      5-min Rain = 0
KTA1 171828Z 09009KT 11/M03 A3016 RMK A01 T01071030  RH  038%=      5-min Rain = 0
KTA1 171829Z 10009KT 11/M03 A3016 RMK A01 T01071032  RH  038%=      5-min Rain = 0
KTA1 171830Z 10009KT 11/M04 A3016 RMK A01 T01061035  RH  037%=      5-min Rain = 0
KTA1 171831Z 09009KT 11/M03 A3016 RMK A01 T01061034  RH  037%=      5-min Rain = 0
KTA1 171832Z 08006KT 11/M03 A3016 RMK A01 T01071033  RH  037%=      5-min Rain = 0
KTA1 171833Z 08006KT 11/M03 A3016 RMK A01 T01081030  RH  038%=      5-min Rain = 0
KTA1 171834Z 06009KT 11/M03 A3016 RMK A01 T01101032  RH  037%=      5-min Rain = 0
KTA1 171835Z 07008KT 11/M04 A3016 RMK A01 T01091038  RH  035%=      5-min Rain = 0
KTA1 171836Z 07008KT 11/M04 A3016 RMK A01 T01101037  RH  036%=      5-min Rain = 0
KTA1 171837Z 07009KT 11/M04 A3016 RMK A01 T01101040  RH  035%=      5-min Rain = 0
KTA1 171838Z 07008KT 11/M04 A3016 RMK A01 T01101041  RH  035%=      5-min Rain = 0
KTA1 171839Z 06006KT 11/M04 A3015 RMK A01 T01091040  RH  035%=      5-min Rain = 0
KTA1 171840Z 07008KT 11/M03 A3015 RMK A01 T01101033  RH  037%=      5-min Rain = 0
KTA1 171841Z 08008KT 11/M03 A3015 RMK A01 T01121034  RH  036%=      5-min Rain = 0
KTA1 171842Z 08010KT 11/M04 A3015 RMK A01 T01131038  RH  034%=      5-min Rain = 0
KTA1 171843Z 08011KT 11/M04 A3015 RMK A01 T01131040  RH  034%=      5-min Rain = 0
KTA1 171844Z 08009KT 11/M04 A3015 RMK A01 T01121043  RH  034%=      5-min Rain = 0
KTA1 171845Z 08006KT 11/M05 A3015 RMK A01 T01101045  RH  033%=      5-min Rain = 0
KTA1 171846Z 06007KT 11/M04 A3015 RMK A01 T01101042  RH  034%=      5-min Rain = 0
KTA1 171847Z 07006KT 11/M04 A3015 RMK A01 T01111042  RH  034%=      5-min Rain = 0
KTA1 171848Z 08006KT 11/M04 A3015 RMK A01 T01121041  RH  034%=      5-min Rain = 0
KTA1 171849Z 06007KT 11/M04 A3015 RMK A01 T01121041  RH  034%=      5-min Rain = 0
KTA1 171850Z 05007KT 11/M04 A3015 RMK A01 T01111040  RH  034%=      5-min Rain = 0
KTA1 171851Z 06007KT 11/M04 A3015 RMK A01 T01121042  RH  034%=      5-min Rain = 0
KTA1 171852Z 08007KT 11/M04 A3015 RMK A01 T01131042  RH  033%=      5-min Rain = 0
KTA1 171853Z 06007KT 11/M04 A3015 RMK A01 T01131044  RH  033%=      5-min Rain = 0
KTA1 171854Z 08008KT 11/M05 A3015 RMK A01 T01131046  RH  033%=      5-min Rain = 0
KTA1 171855Z 07009KT 11/M05 A3015 RMK A01 T01131046  RH  033%=      5-min Rain = 0
KTA1 171856Z 06005KT 11/M05 A3015 RMK A01 T01131045  RH  033%=      5-min Rain = 0
KTA1 171857Z 09007KT 11/M05 A3015 RMK A01 T01131046  RH  032%=      5-min Rain = 0
KTA1 171858Z 09007KT 11/M05 A3015 RMK A01 T01131049  RH  032%=      5-min Rain = 0
KTA1 171859Z 09004KT 11/M05 A3015 RMK A01 T01121048  RH  032%=      5-min Rain = 0
KTA1 171900Z 07006KT 11/M05 A3015 RMK A01 T01121046  RH  033%=      5-min Rain = 0
KTA1 171901Z 06007KT 11/M04 A3015 RMK A01 T01121044  RH  033%=      5-min Rain = 0
KTA1 171902Z 05007KT 11/M04 A3015 RMK A01 T01121043  RH  033%=      5-min Rain = 0
KTA1 171903Z 05006KT 11/M04 A3015 RMK A01 T01131042  RH  034%=      5-min Rain = 0
KTA1 171904Z 06007KT 11/M04 A3015 RMK A01 T01141041  RH  033%=      5-min Rain = 0
KTA1 171905Z 06008KT 12/M04 A3015 RMK A01 T01161043  RH  033%=      5-min Rain = 0
KTA1 171906Z 06006KT 12/M05 A3015 RMK A01 T01151046  RH  032%=      5-min Rain = 0
KTA1 171907Z 06007KT 11/M05 A3014 RMK A01 T01131048  RH  032%=      5-min Rain = 0
KTA1 171908Z 06008KT 11/M05 A3014 RMK A01 T01121047  RH  032%=      5-min Rain = 0
KTA1 171909Z 05005KT 11/M05 A3014 RMK A01 T01131048  RH  032%=      5-min Rain = 0
KTA1 171910Z 07006KT 11/M05 A3014 RMK A01 T01131050  RH  032%=      5-min Rain = 0
KTA1 171911Z 07005KT 11/M05 A3014 RMK A01 T01121050  RH  032%=      5-min Rain = 0
KTA1 171912Z 07005KT 11/M05 A3014 RMK A01 T01121053  RH  031%=      5-min Rain = 0
KTA1 171913Z 08004KT 11/M06 A3014 RMK A01 T01121055  RH  031%=      5-min Rain = 0
KTA1 171914Z 07005KT 11/M06 A3014 RMK A01 T01121055  RH  031%=      5-min Rain = 0
KTA1 171915Z 08004KT 11/M05 A3014 RMK A01 T01121054  RH  031%=      5-min Rain = 0
KTA1 171916Z 08005KT 11/M05 A3014 RMK A01 T01131050  RH  032%=      5-min Rain = 0
KTA1 171917Z 09006KT 11/M05 A3014 RMK A01 T01141046  RH  032%=      5-min Rain = 0
KTA1 171918Z 08003KT 12/M05 A3014 RMK A01 T01161045  RH  032%=      5-min Rain = 0
KTA1 171919Z 09006KT 12/M05 A3014 RMK A01 T01161045  RH  032%=      5-min Rain = 0
KTA1 171920Z 09007KT 12/M04 A3014 RMK A01 T01191042  RH  032%=      5-min Rain = 0
KTA1 171921Z 07005KT 12/M04 A3014 RMK A01 T01201043  RH  032%=      5-min Rain = 0
KTA1 171922Z 08005KT 12/M04 A3013 RMK A01 T01221041  RH  032%=      5-min Rain = 0
KTA1 171923Z 06006KT 12/M04 A3013 RMK A01 T01231042  RH  031%=      5-min Rain = 0
KTA1 171924Z 04009KT 12/M05 A3013 RMK A01 T01221045  RH  031%=      5-min Rain = 0
KTA1 171925Z 07008KT 12/M05 A3013 RMK A01 T01191045  RH  031%=      5-min Rain = 0
KTA1 171926Z 09007KT 12/M04 A3013 RMK A01 T01211043  RH  031%=      5-min Rain = 0
KTA1 171927Z 07005KT 12/M05 A3013 RMK A01 T01221045  RH  031%=      5-min Rain = 0
KTA1 171928Z 07005KT 12/M05 A3013 RMK A01 T01211045  RH  031%=      5-min Rain = 0
KTA1 171929Z 05006KT 12/M05 A3013 RMK A01 T01201046  RH  031%=      5-min Rain = 0
KTA1 171930Z 06007KT 12/M04 A3013 RMK A01 T01201044  RH  032%=      5-min Rain = 0
KTA1 171931Z 06005KT 12/M04 A3013 RMK A01 T01181044  RH  032%=      5-min Rain = 0
KTA1 171932Z 09008KT 12/M04 A3013 RMK A01 T01161043  RH  032%=      5-min Rain = 0
KTA1 171933Z 09008KT 12/M04 A3013 RMK A01 T01161043  RH  033%=      5-min Rain = 0
KTA1 171934Z 10005KT 12/M04 A3013 RMK A01 T01151044  RH  032%=      5-min Rain = 0
KTA1 171935Z 07004KT 12/M04 A3013 RMK A01 T01151042  RH  033%=      5-min Rain = 0
KTA1 171936Z 06007KT 12/M04 A3013 RMK A01 T01171042  RH  033%=      5-min Rain = 0
KTA1 171937Z 11009KT 12/M04 A3013 RMK A01 T01181044  RH  032%=      5-min Rain = 0
KTA1 171938Z 13005KT 12/M05 A3013 RMK A01 T01191046  RH  031%=      5-min Rain = 0
KTA1 171939Z 12004KT 12/M05 A3013 RMK A01 T01201046  RH  031%=      5-min Rain = 0
KTA1 171940Z 10006KT 12/M05 A3013 RMK A01 T01211047  RH  031%=      5-min Rain = 0
KTA1 171941Z 09007KT 12/M04 A3013 RMK A01 T01211044  RH  031%=      5-min Rain = 0
KTA1 171942Z 08006KT 12/M05 A3013 RMK A01 T01181045  RH  032%=      5-min Rain = 0
KTA1 171943Z 08006KT 12/M04 A3013 RMK A01 T01171044  RH  032%=      5-min Rain = 0
KTA1 171944Z 09007KT 12/M04 A3013 RMK A01 T01171044  RH  032%=      5-min Rain = 0
KTA1 171945Z 08005KT 12/M04 A3012 RMK A01 T01171044  RH  032%=      5-min Rain = 0
KTA1 171946Z 08006KT 12/M05 A3012 RMK A01 T01171045  RH  032%=      5-min Rain = 0
KTA1 171947Z 11007KT 12/M05 A3012 RMK A01 T01171045  RH  032%=      5-min Rain = 0
KTA1 171948Z 11006KT 12/M05 A3012 RMK A01 T01181046  RH  031%=      5-min Rain = 0
KTA1 171949Z 08006KT 12/M05 A3012 RMK A01 T01191045  RH  031%=      5-min Rain = 0
KTA1 171950Z 07005KT 12/M04 A3012 RMK A01 T01201043  RH  032%=      5-min Rain = 0
KTA1 171951Z 07006KT 12/M05 A3012 RMK A01 T01211045  RH  031%=      5-min Rain = 0
KTA1 171952Z 06006KT 12/M05 A3012 RMK A01 T01211045  RH  031%=      5-min Rain = 0
KTA1 171953Z 06004KT 12/M05 A3012 RMK A01 T01201047  RH  031%=      5-min Rain = 0
KTA1 171954Z 05004KT 12/M05 A3012 RMK A01 T01191047  RH  031%=      5-min Rain = 0
KTA1 171955Z 04004KT 12/M05 A3011 RMK A01 T01191047  RH  031%=      5-min Rain = 0
KTA1 171956Z 04006KT 12/M05 A3011 RMK A01 T01201047  RH  031%=      5-min Rain = 0
KTA1 171957Z 05006KT 12/M05 A3011 RMK A01 T01201046  RH  031%=      5-min Rain = 0
KTA1 171958Z 06005KT 12/M05 A3011 RMK A01 T01211046  RH  031%=      5-min Rain = 0
KTA1 171959Z 06004KT 12/M05 A3011 RMK A01 T01191048  RH  031%=      5-min Rain = 0
KTA1 172000Z 04004KT 12/M05 A3011 RMK A01 T01191046  RH  031%=      5-min Rain = 0
KTA1 172001Z 06002KT 12/M05 A3011 RMK A01 T01201047  RH  031%=      5-min Rain = 0
KTA1 172002Z 08005KT 12/M05 A3011 RMK A01 T01201046  RH  031%=      5-min Rain = 0
KTA1 172003Z 11007KT 12/M04 A3011 RMK A01 T01211044  RH  031%=      5-min Rain = 0
KTA1 172004Z 11007KT 12/M05 A3011 RMK A01 T01221045  RH  031%=      5-min Rain = 0
KTA1 172005Z 11004KT 12/M05 A3011 RMK A01 T01211045  RH  031%=      5-min Rain = 0
KTA1 172006Z 10003KT 12/M05 A3011 RMK A01 T01211045  RH  031%=      5-min Rain = 0
KTA1 172007Z 10004KT 12/M05 A3011 RMK A01 T01211046  RH  031%=      5-min Rain = 0
KTA1 172008Z 10005KT 12/M05 A3011 RMK A01 T01201046  RH  031%=      5-min Rain = 0
KTA1 172009Z 09006KT 12/M05 A301 RMK A01 T01201048  RH  031%=      5-min Rain = 0
KTA1 172010Z 09008KT 12/M05 A301 RMK A01 T01211046  RH  031%=      5-min Rain = 0
KTA1 172011Z 10006KT 12/M05 A301 RMK A01 T01221045  RH  031%=      5-min Rain = 0
KTA1 172012Z 11003KT 12/M05 A301 RMK A01 T01211047  RH  031%=      5-min Rain = 0
KTA1 172013Z 09002KT 12/M05 A301 RMK A01 T01201048  RH  031%=      5-min Rain = 0
KTA1 172014Z 08004KT 12/M05 A301 RMK A01 T01201048  RH  031%=      5-min Rain = 0
KTA1 172015Z 06005KT 12/M05 A301 RMK A01 T01211047  RH  031%=      5-min Rain = 0
KTA1 172016Z 06004KT 12/M05 A301 RMK A01 T01211047  RH  031%=      5-min Rain = 0
KTA1 172017Z 06004KT 12/M05 A301 RMK A01 T01201049  RH  030%=      5-min Rain = 0
KTA1 172018Z 08005KT 12/M05 A301 RMK A01 T01191048  RH  031%=      5-min Rain = 0
KTA1 172019Z 09005KT 12/M05 A301 RMK A01 T01201048  RH  031%=      5-min Rain = 0
KTA1 172020Z 07006KT 12/M05 A301 RMK A01 T01201048  RH  031%=      5-min Rain = 0
KTA1 172021Z 09005KT 12/M05 A301 RMK A01 T01201049  RH  030%=      5-min Rain = 0
KTA1 172022Z 08005KT 12/M05 A301 RMK A01 T01201049  RH  030%=      5-min Rain = 0
KTA1 172023Z 09007KT 12/M05 A301 RMK A01 T01201048  RH  031%=      5-min Rain = 0
KTA1 172024Z 09005KT 12/M05 A301 RMK A01 T01211046  RH  031%=      5-min Rain = 0
KTA1 172025Z 11004KT 12/M05 A301 RMK A01 T01231045  RH  031%=      5-min Rain = 0
KTA1 172026Z 09003KT 12/M05 A301 RMK A01 T01231046  RH  030%=      5-min Rain = 0
KTA1 172027Z 08003KT 12/M05 A301 RMK A01 T01241048  RH  030%=      5-min Rain = 0
KTA1 172028Z 10004KT 12/M05 A301 RMK A01 T01241047  RH  030%=      5-min Rain = 0
KTA1 172029Z 09005KT 13/M05 A3009 RMK A01 T01251046  RH  030%=      5-min Rain = 0
KTA1 172030Z 10005KT 13/M05 A3009 RMK A01 T01261045  RH  030%=      5-min Rain = 0
KTA1 172031Z 09007KT 13/M05 A3009 RMK A01 T01261045  RH  030%=      5-min Rain = 0
KTA1 172032Z 09005KT 12/M05 A3009 RMK A01 T01241048  RH  030%=      5-min Rain = 0
KTA1 172033Z 08007KT 12/M05 A3009 RMK A01 T01231047  RH  030%=      5-min Rain = 0
KTA1 172034Z 08005KT 12/M05 A3009 RMK A01 T01231047  RH  030%=      5-min Rain = 0
KTA1 172035Z 06004KT 12/M05 A3009 RMK A01 T01231048  RH  030%=      5-min Rain = 0
KTA1 172036Z 09004KT 12/M05 A3009 RMK A01 T01231047  RH  030%=      5-min Rain = 0
KTA1 172037Z 09005KT 12/M05 A3009 RMK A01 T01241046  RH  030%=      5-min Rain = 0
KTA1 172038Z 10006KT 12/M05 A3009 RMK A01 T01241045  RH  030%=      5-min Rain = 0
KTA1 172039Z 10008KT 13/M04 A3009 RMK A01 T01261043  RH  030%=      5-min Rain = 0
KTA1 172040Z 09006KT 13/M05 A3009 RMK A01 T01271046  RH  030%=      5-min Rain = 0
KTA1 172041Z 09004KT 12/M05 A3009 RMK A01 T01241049  RH  029%=      5-min Rain = 0
KTA1 172042Z 08005KT 12/M05 A3009 RMK A01 T01231046  RH  030%=      5-min Rain = 0
KTA1 172043Z 07004KT 12/M05 A3009 RMK A01 T01241048  RH  030%=      5-min Rain = 0
KTA1 172044Z 11006KT 12/M05 A3009 RMK A01 T01241046  RH  030%=      5-min Rain = 0
KTA1 172045Z 11006KT 13/M05 A3009 RMK A01 T01261045  RH  030%=      5-min Rain = 0
KTA1 172046Z 10004KT 13/M05 A3009 RMK A01 T01261049  RH  029%=      5-min Rain = 0
KTA1 172047Z 10004KT 12/M05 A3008 RMK A01 T01241049  RH  029%=      5-min Rain = 0
KTA1 172048Z 12003KT 12/M05 A3008 RMK A01 T01241048  RH  030%=      5-min Rain = 0
KTA1 172049Z 12002KT 13/M05 A3008 RMK A01 T01251050  RH  029%=      5-min Rain = 0
KTA1 172050Z 08004KT 13/M05 A3008 RMK A01 T01261048  RH  030%=      5-min Rain = 0
KTA1 172051Z 10005KT 13/M05 A3008 RMK A01 T01261047  RH  030%=      5-min Rain = 0
KTA1 172052Z 12005KT 13/M05 A3008 RMK A01 T01281046  RH  030%=      5-min Rain = 0
KTA1 172053Z 10003KT 13/M05 A3008 RMK A01 T01291048  RH  029%=      5-min Rain = 0
KTA1 172054Z 08003KT 13/M05 A3008 RMK A01 T01281050  RH  029%=      5-min Rain = 0
KTA1 172055Z 08005KT 13/M05 A3008 RMK A01 T01271048  RH  029%=      5-min Rain = 0
KTA1 172056Z 09006KT 13/M05 A3008 RMK A01 T01271048  RH  029%=      5-min Rain = 0
KTA1 172057Z 10007KT 13/M05 A3008 RMK A01 T01281047  RH  029%=      5-min Rain = 0
KTA1 172058Z 12007KT 13/M05 A3008 RMK A01 T01281048  RH  029%=      5-min Rain = 0
KTA1 172059Z 11007KT 13/M05 A3008 RMK A01 T01291048  RH  029%=      5-min Rain = 0
KTA1 172100Z 13005KT 13/M05 A3008 RMK A01 T01281049  RH  029%=      5-min Rain = 0
KTA1 172101Z 12005KT 13/M05 A3008 RMK A01 T01271050  RH  029%=      5-min Rain = 0
KTA1 172102Z 12004KT 13/M05 A3008 RMK A01 T01261050  RH  029%=      5-min Rain = 0
KTA1 172103Z 11005KT 13/M05 A3008 RMK A01 T01271046  RH  030%=      5-min Rain = 0
KTA1 172104Z 12005KT 13/M05 A3008 RMK A01 T01281049  RH  029%=      5-min Rain = 0
KTA1 172105Z 14005KT 13/M05 A3008 RMK A01 T01281049  RH  029%=      5-min Rain = 0
KTA1 172106Z 13003KT 13/M05 A3008 RMK A01 T01291050  RH  028%=      5-min Rain = 0
KTA1 172107Z 13003KT 13/M05 A3008 RMK A01 T01291050  RH  028%=      5-min Rain = 0
KTA1 172108Z 13004KT 13/M05 A3008 RMK A01 T01301048  RH  029%=      5-min Rain = 0
KTA1 172109Z 09005KT 13/M05 A3008 RMK A01 T01311048  RH  028%=      5-min Rain = 0
KTA1 172110Z 08006KT 13/M05 A3008 RMK A01 T01301049  RH  028%=      5-min Rain = 0
KTA1 172111Z 08006KT 13/M05 A3008 RMK A01 T01291049  RH  029%=      5-min Rain = 0
KTA1 172112Z 10005KT 13/M05 A3008 RMK A01 T01281050  RH  028%=      5-min Rain = 0
KTA1 172113Z 09004KT 13/M05 A3008 RMK A01 T01281050  RH  028%=      5-min Rain = 0
KTA1 172114Z 09004KT 13/M05 A3008 RMK A01 T01271051  RH  028%=      5-min Rain = 0
KTA1 172115Z 08003KT 13/M05 A3008 RMK A01 T01271052  RH  028%=      5-min Rain = 0
KTA1 172116Z 11006KT 13/M05 A3008 RMK A01 T01261052  RH  029%=      5-min Rain = 0
KTA1 172117Z 13004KT 13/M05 A3008 RMK A01 T01261051  RH  029%=      5-min Rain = 0
KTA1 172118Z 14004KT 13/M05 A3008 RMK A01 T01271051  RH  029%=      5-min Rain = 0
KTA1 172119Z 13003KT 13/M05 A3008 RMK A01 T01281050  RH  029%=      5-min Rain = 0
KTA1 172120Z 11006KT 13/M05 A3008 RMK A01 T01291048  RH  029%=      5-min Rain = 0
KTA1 172121Z 10006KT 13/M05 A3008 RMK A01 T01301049  RH  028%=      5-min Rain = 0
KTA1 172122Z 10004KT 13/M05 A3008 RMK A01 T01301050  RH  028%=      5-min Rain = 0
KTA1 172123Z 10004KT 13/M05 A3008 RMK A01 T01301049  RH  029%=      5-min Rain = 0
KTA1 172124Z 10004KT 13/M05 A3008 RMK A01 T01301049  RH  028%=      5-min Rain = 0
KTA1 172125Z 12006KT 13/M05 A3008 RMK A01 T01301050  RH  028%=      5-min Rain = 0
KTA1 172126Z 14006KT 13/M05 A3008 RMK A01 T01301049  RH  028%=      5-min Rain = 0
KTA1 172127Z 14005KT 13/M05 A3008 RMK A01 T01301049  RH  028%=      5-min Rain = 0
KTA1 172128Z 15003KT 13/M05 A3008 RMK A01 T01311050  RH  028%=      5-min Rain = 0
KTA1 172129Z 16002KT 13/M05 A3008 RMK A01 T01311049  RH  028%=      5-min Rain = 0
KTA1 172130Z 14004KT 13/M05 A3008 RMK A01 T01311048  RH  028%=      5-min Rain = 0
KTA1 172131Z 13007KT 13/M05 A3008 RMK A01 T01321048  RH  028%=      5-min Rain = 0
KTA1 172132Z 16005KT 13/M05 A3008 RMK A01 T01321046  RH  029%=      5-min Rain = 0
KTA1 172133Z 18003KT 13/M05 A3008 RMK A01 T01321047  RH  028%=      5-min Rain = 0
KTA1 172134Z 14005KT 13/M04 A3008 RMK A01 T01341044  RH  029%=      5-min Rain = 0
KTA1 172135Z 13007KT 14/M05 A3008 RMK A01 T01351045  RH  028%=      5-min Rain = 0
KTA1 172136Z 12006KT 14/M05 A3008 RMK A01 T01351046  RH  028%=      5-min Rain = 0
KTA1 172137Z 12004KT 13/M05 A3008 RMK A01 T01341046  RH  028%=      5-min Rain = 0
KTA1 172138Z 14002KT 13/M05 A3008 RMK A01 T01331047  RH  028%=      5-min Rain = 0
KTA1 172139Z 11005KT 13/M05 A3008 RMK A01 T01321046  RH  029%=      5-min Rain = 0
KTA1 172140Z 12006KT 13/M05 A3008 RMK A01 T01321046  RH  029%=      5-min Rain = 0
KTA1 172141Z 13007KT 13/M05 A3008 RMK A01 T01321046  RH  029%=      5-min Rain = 0
KTA1 172142Z 13005KT 13/M05 A3008 RMK A01 T01311048  RH  029%=      5-min Rain = 0
KTA1 172143Z 13004KT 13/M05 A3008 RMK A01 T01311048  RH  029%=      5-min Rain = 0
KTA1 172144Z 13004KT 13/M05 A3008 RMK A01 T01301047  RH  029%=      5-min Rain = 0
KTA1 172145Z 13007KT 13/M05 A3008 RMK A01 T01311047  RH  029%=      5-min Rain = 0
KTA1 172146Z 14007KT 13/M05 A3008 RMK A01 T01311047  RH  029%=      5-min Rain = 0
KTA1 172147Z 13006KT 13/M05 A3008 RMK A01 T01301046  RH  029%=      5-min Rain = 0
KTA1 172148Z 12003KT 13/M05 A3008 RMK A01 T01301047  RH  029%=      5-min Rain = 0
KTA1 172149Z 12005KT 13/M05 A3008 RMK A01 T01291048  RH  029%=      5-min Rain = 0
KTA1 172150Z 13006KT 13/M05 A3008 RMK A01 T01301046  RH  029%=      5-min Rain = 0
KTA1 172151Z 13006KT 13/M05 A3008 RMK A01 T01301047  RH  029%=      5-min Rain = 0
KTA1 172152Z 15005KT 13/M05 A3008 RMK A01 T01301047  RH  029%=      5-min Rain = 0
KTA1 172153Z 15004KT 13/M05 A3008 RMK A01 T01301048  RH  029%=      5-min Rain = 0
KTA1 172154Z 14003KT 13/M05 A3008 RMK A01 T01311047  RH  029%=      5-min Rain = 0
KTA1 172155Z 14002KT 13/M05 A3008 RMK A01 T01311049  RH  028%=      5-min Rain = 0
KTA1 172156Z 12002KT 13/M05 A3008 RMK A01 T01311048  RH  028%=      5-min Rain = 0
KTA1 172157Z 11003KT 13/M05 A3008 RMK A01 T01311050  RH  028%=      5-min Rain = 0
KTA1 172158Z 10001KT 13/M05 A3008 RMK A01 T01301049  RH  028%=      5-min Rain = 0
KTA1 172159Z 10002KT 13/M05 A3008 RMK A01 T01301048  RH  028%=      5-min Rain = 0
KTA1 172200Z 12002KT 13/M05 A3008 RMK A01 T01301049  RH  028%=      5-min Rain = 0
KTA1 172201Z 10002KT 13/M05 A3008 RMK A01 T01311048  RH  028%=      5-min Rain = 0
KTA1 172202Z 12002KT 13/M05 A3008 RMK A01 T01311049  RH  028%=      5-min Rain = 0
KTA1 172203Z 06004KT 13/M05 A3008 RMK A01 T01311047  RH  028%=      5-min Rain = 0
KTA1 172204Z 06004KT 13/M05 A3008 RMK A01 T01321046  RH  029%=      5-min Rain = 0
KTA1 172205Z 07002KT 13/M05 A3008 RMK A01 T01311048  RH  029%=      5-min Rain = 0
KTA1 172206Z 08002KT 13/M05 A3008 RMK A01 T01301047  RH  029%=      5-min Rain = 0
KTA1 172207Z 11001KT 13/M05 A3008 RMK A01 T01301047  RH  029%=      5-min Rain = 0
KTA1 172208Z 10001KT 13/M05 A3008 RMK A01 T01301046  RH  029%=      5-min Rain = 0
KTA1 172209Z 13002KT 13/M05 A3008 RMK A01 T01311048  RH  028%=      5-min Rain = 0
KTA1 172210Z 14002KT 13/M05 A3008 RMK A01 T01321046  RH  029%=      5-min Rain = 0
KTA1 172211Z 11003KT 13/M05 A3008 RMK A01 T01331046  RH  028%=      5-min Rain = 0
KTA1 172212Z 10001KT 13/M05 A3008 RMK A01 T01331048  RH  028%=      5-min Rain = 0
KTA1 172213Z 14003KT 13/M05 A3008 RMK A01 T01331047  RH  028%=      5-min Rain = 0
KTA1 172214Z 13005KT 13/M05 A3008 RMK A01 T01341045  RH  029%=      5-min Rain = 0
KTA1 172215Z 13006KT 13/M04 A3008 RMK A01 T01341044  RH  029%=      5-min Rain = 0
KTA1 172216Z 12005KT 13/M05 A3008 RMK A01 T01341046  RH  028%=      5-min Rain = 0
KTA1 172217Z 13005KT 13/M04 A3009 RMK A01 T01331044  RH  029%=      5-min Rain = 0
KTA1 172218Z 12004KT 13/M04 A3009 RMK A01 T01331044  RH  029%=      5-min Rain = 0
KTA1 172219Z 12003KT 13/M05 A3009 RMK A01 T01331045  RH  029%=      5-min Rain = 0
KTA1 172220Z 12003KT 13/M05 A3009 RMK A01 T01331046  RH  029%=      5-min Rain = 0
KTA1 172221Z 12002KT 13/M05 A3009 RMK A01 T01321048  RH  028%=      5-min Rain = 0
KTA1 172222Z 12002KT 13/M05 A3008 RMK A01 T01321048  RH  028%=      5-min Rain = 0
KTA1 172223Z 11002KT 13/M05 A3009 RMK A01 T01331047  RH  028%=      5-min Rain = 0
KTA1 172224Z 10001KT 13/M05 A3009 RMK A01 T01341046  RH  028%=      5-min Rain = 0
KTA1 172225Z 26001KT 13/M05 A3009 RMK A01 T01331047  RH  028%=      5-min Rain = 0
KTA1 172226Z 34001KT 13/M05 A3009 RMK A01 T01331048  RH  028%=      5-min Rain = 0
KTA1 172227Z 05003KT 13/M05 A3009 RMK A01 T01321046  RH  029%=      5-min Rain = 0
KTA1 172228Z 07001KT 13/M05 A3009 RMK A01 T01321046  RH  029%=      5-min Rain = 0
KTA1 172229Z 08002KT 13/M05 A3009 RMK A01 T01311048  RH  028%=      5-min Rain = 0
KTA1 172230Z 10002KT 13/M05 A3009 RMK A01 T01301049  RH  028%=      5-min Rain = 0
KTA1 172231Z 09003KT 13/M05 A3009 RMK A01 T01291049  RH  029%=      5-min Rain = 0
KTA1 172232Z 10001KT 13/M05 A3009 RMK A01 T01281050  RH  029%=      5-min Rain = 0
KTA1 172233Z 13002KT 13/M05 A3009 RMK A01 T01281050  RH  029%=      5-min Rain = 0
KTA1 172234Z 14002KT 13/M05 A3009 RMK A01 T01281049  RH  029%=      5-min Rain = 0
KTA1 172235Z 14001KT 13/M05 A3009 RMK A01 T01301049  RH  028%=      5-min Rain = 0
KTA1 172236Z 12001KT 13/M05 A3009 RMK A01 T01311049  RH  028%=      5-min Rain = 0
KTA1 172237Z 10001KT 13/M05 A3009 RMK A01 T01321049  RH  028%=      5-min Rain = 0
KTA1 172238Z 14001KT 13/M05 A3009 RMK A01 T01321049  RH  028%=      5-min Rain = 0
KTA1 172239Z 16001KT 13/M05 A3009 RMK A01 T01321049  RH  028%=      5-min Rain = 0
KTA1 172240Z 21001KT 13/M05 A3009 RMK A01 T01321049  RH  028%=      5-min Rain = 0
KTA1 172241Z 24001KT 13/M05 A3009 RMK A01 T01331049  RH  028%=      5-min Rain = 0
KTA1 172242Z 23001KT 13/M05 A3009 RMK A01 T01331049  RH  028%=      5-min Rain = 0
KTA1 172243Z 24000KT 13/M05 A3009 RMK A01 T01331050  RH  028%=      5-min Rain = 0
KTA1 172244Z 00000KT 13/M05 A3009 RMK A01 T01341049  RH  028%=      5-min Rain = 0
KTA1 172245Z 04000KT 13/M05 A3009 RMK A01 T01341049  RH  028%=      5-min Rain = 0
KTA1 172246Z 04000KT 13/M05 A3009 RMK A01 T01341049  RH  028%=      5-min Rain = 0
KTA1 172247Z 04002KT 13/M05 A3009 RMK A01 T01341048  RH  028%=      5-min Rain = 0
KTA1 172248Z 06003KT 13/M05 A3009 RMK A01 T01321046  RH  029%=      5-min Rain = 0
KTA1 172249Z 06003KT 13/M05 A3009 RMK A01 T01321045  RH  029%=      5-min Rain = 0
KTA1 172250Z 08004KT 13/M05 A3009 RMK A01 T01311046  RH  029%=      5-min Rain = 0
KTA1 172251Z 08004KT 13/M05 A3009 RMK A01 T01301047  RH  029%=      5-min Rain = 0
KTA1 172252Z 08003KT 13/M05 A3009 RMK A01 T01291048  RH  029%=      5-min Rain = 0
KTA1 172253Z 08002KT 13/M05 A3009 RMK A01 T01281049  RH  029%=      5-min Rain = 0
KTA1 172254Z 08002KT 13/M05 A3009 RMK A01 T01271050  RH  029%=      5-min Rain = 0
KTA1 172255Z 08002KT 13/M05 A3009 RMK A01 T01271050  RH  029%=      5-min Rain = 0
KTA1 172256Z 06002KT 13/M05 A3009 RMK A01 T01271048  RH  029%=      5-min Rain = 0
KTA1 172257Z 05002KT 13/M05 A3009 RMK A01 T01271048  RH  029%=      5-min Rain = 0
KTA1 172258Z 03002KT 13/M05 A3009 RMK A01 T01271048  RH  029%=      5-min Rain = 0
KTA1 172259Z 02002KT 13/M05 A3009 RMK A01 T01271049  RH  029%=      5-min Rain = 0
KTA1 172300Z 02001KT 13/M05 A3009 RMK A01 T01271047  RH  029%=      5-min Rain = 0
KTA1 172301Z 04001KT 13/M05 A3009 RMK A01 T01271048  RH  029%=      5-min Rain = 0
KTA1 172302Z 05001KT 13/M05 A3009 RMK A01 T01271047  RH  029%=      5-min Rain = 0
KTA1 172303Z 04002KT 13/M05 A3009 RMK A01 T01271048  RH  029%=      5-min Rain = 0
KTA1 172304Z 03002KT 13/M05 A3009 RMK A01 T01281045  RH  030%=      5-min Rain = 0
KTA1 172305Z 05002KT 13/M04 A3009 RMK A01 T01281044  RH  030%=      5-min Rain = 0
KTA1 172306Z 06002KT 13/M04 A3009 RMK A01 T01271044  RH  030%=      5-min Rain = 0
KTA1 172307Z 07002KT 13/M05 A3009 RMK A01 T01271048  RH  029%=      5-min Rain = 0
KTA1 172308Z 08004KT 13/M05 A3009 RMK A01 T01271047  RH  030%=      5-min Rain = 0
KTA1 172309Z 08004KT 13/M05 A3009 RMK A01 T01271046  RH  030%=      5-min Rain = 0
KTA1 172310Z 08003KT 13/M05 A3009 RMK A01 T01271046  RH  030%=      5-min Rain = 0
KTA1 172311Z 08004KT 13/M05 A3009 RMK A01 T01271045  RH  030%=      5-min Rain = 0
KTA1 172312Z 08004KT 13/M05 A3009 RMK A01 T01261046  RH  030%=      5-min Rain = 0
KTA1 172313Z 08004KT 13/M05 A3009 RMK A01 T01261047  RH  030%=      5-min Rain = 0
KTA1 172314Z 08004KT 13/M05 A3009 RMK A01 T01261046  RH  030%=      5-min Rain = 0
KTA1 172315Z 08004KT 13/M05 A3009 RMK A01 T01261047  RH  030%=      5-min Rain = 0
KTA1 172316Z 07003KT 13/M05 A3009 RMK A01 T01251047  RH  030%=      5-min Rain = 0
KTA1 172317Z 08003KT 13/M05 A3009 RMK A01 T01251047  RH  030%=      5-min Rain = 0
KTA1 172318Z 08003KT 13/M05 A3009 RMK A01 T01251047  RH  030%=      5-min Rain = 0
KTA1 172319Z 09002KT 13/M05 A3009 RMK A01 T01251047  RH  030%=      5-min Rain = 0
KTA1 172320Z 09002KT 13/M05 A3009 RMK A01 T01251047  RH  030%=      5-min Rain = 0
KTA1 172321Z 08002KT 13/M05 A3009 RMK A01 T01251046  RH  030%=      5-min Rain = 0
KTA1 172322Z 07002KT 13/M05 A3009 RMK A01 T01251045  RH  030%=      5-min Rain = 0
KTA1 172323Z 08003KT 13/M04 A3009 RMK A01 T01251043  RH  031%=      5-min Rain = 0
KTA1 172324Z 09003KT 12/M04 A3009 RMK A01 T01241043  RH  031%=      5-min Rain = 0
KTA1 172325Z 09003KT 12/M04 A3009 RMK A01 T01231043  RH  031%=      5-min Rain = 0
KTA1 172326Z 10003KT 12/M05 A3008 RMK A01 T01231045  RH  031%=      5-min Rain = 0
KTA1 172327Z 11002KT 12/M05 A3008 RMK A01 T01221048  RH  030%=      5-min Rain = 0
KTA1 172328Z 12002KT 12/M05 A3008 RMK A01 T01221047  RH  030%=      5-min Rain = 0
KTA1 172329Z 12003KT 12/M04 A3008 RMK A01 T01221044  RH  031%=      5-min Rain = 0
KTA1 172330Z 10003KT 12/M04 A3008 RMK A01 T01221042  RH  032%=      5-min Rain = 0
KTA1 172331Z 10003KT 12/M04 A3009 RMK A01 T01211041  RH  032%=      5-min Rain = 0
KTA1 172332Z 08004KT 12/M04 A3009 RMK A01 T01201041  RH  032%=      5-min Rain = 0
KTA1 172333Z 07003KT 12/M04 A3009 RMK A01 T01201040  RH  033%=      5-min Rain = 0
KTA1 172334Z 07004KT 12/M04 A3009 RMK A01 T01191039  RH  033%=      5-min Rain = 0
KTA1 172335Z 07004KT 12/M04 A3009 RMK A01 T01181038  RH  033%=      5-min Rain = 0
KTA1 172336Z 08004KT 12/M04 A3009 RMK A01 T01171038  RH  034%=      5-min Rain = 0
KTA1 172337Z 08005KT 12/M04 A3009 RMK A01 T01161037  RH  034%=      5-min Rain = 0
KTA1 172338Z 07004KT 12/M04 A3009 RMK A01 T01151036  RH  035%=      5-min Rain = 0
KTA1 172339Z 07004KT 11/M04 A3009 RMK A01 T01141036  RH  035%=      5-min Rain = 0
KTA1 172340Z 07006KT 11/M04 A3009 RMK A01 T01131037  RH  035%=      5-min Rain = 0
KTA1 172341Z 07006KT 11/M04 A3009 RMK A01 T01121037  RH  035%=      5-min Rain = 0
KTA1 172342Z 07006KT 11/M04 A3009 RMK A01 T01111037  RH  035%=      5-min Rain = 0
KTA1 172343Z 07006KT 11/M04 A3009 RMK A01 T01101038  RH  035%=      5-min Rain = 0
KTA1 172344Z 06006KT 11/M04 A3009 RMK A01 T01091039  RH  035%=      5-min Rain = 0
KTA1 172345Z 06006KT 11/M04 A3009 RMK A01 T01091040  RH  035%=      5-min Rain = 0
KTA1 172346Z 06006KT 11/M04 A3009 RMK A01 T01081039  RH  035%=      5-min Rain = 0
KTA1 172347Z 07006KT 11/M04 A3009 RMK A01 T01071040  RH  035%=      5-min Rain = 0
KTA1 172348Z 06006KT 11/M04 A3009 RMK A01 T01071041  RH  035%=      5-min Rain = 0
KTA1 172349Z 07007KT 11/M04 A3009 RMK A01 T01061040  RH  036%=      5-min Rain = 0
KTA1 172350Z 07007KT 11/M04 A3009 RMK A01 T01051041  RH  036%=      5-min Rain = 0
KTA1 172351Z 07007KT 10/M04 A3009 RMK A01 T01041041  RH  036%=      5-min Rain = 0
KTA1 172352Z 07007KT 10/M04 A3009 RMK A01 T01041041  RH  036%=      5-min Rain = 0
KTA1 172353Z 07007KT 10/M04 A3009 RMK A01 T01041041  RH  036%=      5-min Rain = 0
KTA1 172354Z 07007KT 10/M04 A3009 RMK A01 T01031041  RH  036%=      5-min Rain = 0
KTA1 172355Z 07007KT 10/M04 A3009 RMK A01 T01031041  RH  036%=      5-min Rain = 0
KTA1 172356Z 07007KT 10/M04 A3009 RMK A01 T01021041  RH  036%=      5-min Rain = 0
KTA1 172357Z 07007KT 10/M04 A3009 RMK A01 T01011041  RH  037%=      5-min Rain = 0
KTA1 172358Z 07006KT 10/M04 A3009 RMK A01 T01001041  RH  037%=      5-min Rain = 0
KTA1 172359Z 07006KT 10/M04 A3009 RMK A01 T00991040  RH  037%=      5-min Rain = 0
KTA1 180000Z 07007KT 10/M04 A3009 RMK A01 T00981040  RH  038%=      5-min Rain = 0
KTA1 180001Z 08007KT 10/M04 A3009 RMK A01 T00971040  RH  038%=      5-min Rain = 0
KTA1 180002Z 08006KT 10/M04 A3009 RMK A01 T00961040  RH  038%=      5-min Rain = 0
KTA1 180003Z 08006KT 10/M04 A3009 RMK A01 T00951040  RH  038%=      5-min Rain = 0
KTA1 180004Z 07006KT 09/M04 A3009 RMK A01 T00941040  RH  038%=      5-min Rain = 0
KTA1 180005Z 07006KT 09/M04 A3009 RMK A01 T00941040  RH  039%=      5-min Rain = 0
KTA1 180006Z 07007KT 09/M04 A3009 RMK A01 T00931040  RH  039%=      5-min Rain = 0
KTA1 180007Z 07007KT 09/M04 A3009 RMK A01 T00921040  RH  039%=      5-min Rain = 0
KTA1 180008Z 07007KT 09/M04 A3009 RMK A01 T00911040  RH  039%=      5-min Rain = 0
KTA1 180009Z 07007KT 09/M04 A3009 RMK A01 T00901041  RH  039%=      5-min Rain = 0
KTA1 180010Z 07007KT 09/M04 A3009 RMK A01 T00891040  RH  040%=      5-min Rain = 0
KTA1 180011Z 07007KT 09/M04 A3009 RMK A01 T00881040  RH  040%=      5-min Rain = 0
KTA1 180012Z 07007KT 09/M04 A3009 RMK A01 T00871040  RH  041%=      5-min Rain = 0
KTA1 180013Z 07007KT 09/M04 A3009 RMK A01 T00861040  RH  041%=      5-min Rain = 0
KTA1 180014Z 07007KT 09/M04 A3009 RMK A01 T00851040  RH  041%=      5-min Rain = 0
KTA1 180015Z 07007KT 08/M04 A3009 RMK A01 T00841040  RH  041%=      5-min Rain = 0
KTA1 180016Z 08007KT 08/M04 A3009 RMK A01 T00831040  RH  042%=      5-min Rain = 0
KTA1 180017Z 08006KT 08/M04 A3009 RMK A01 T00831039  RH  042%=      5-min Rain = 0
KTA1 180018Z 08006KT 08/M04 A3009 RMK A01 T00821039  RH  042%=      5-min Rain = 0
KTA1 180019Z 08006KT 08/M04 A3009 RMK A01 T00811039  RH  042%=      5-min Rain = 0
KTA1 180020Z 08006KT 08/M04 A3009 RMK A01 T00801040  RH  042%=      5-min Rain = 0
KTA1 180021Z 08006KT 08/M04 A3009 RMK A01 T00801040  RH  043%=      5-min Rain = 0
KTA1 180022Z 08006KT 08/M04 A3009 RMK A01 T00791040  RH  043%=      5-min Rain = 0
KTA1 180023Z 08006KT 08/M04 A3009 RMK A01 T00781040  RH  043%=      5-min Rain = 0
KTA1 180024Z 08007KT 08/M04 A3009 RMK A01 T00781039  RH  043%=      5-min Rain = 0
KTA1 180025Z 08007KT 08/M04 A3009 RMK A01 T00771039  RH  043%=      5-min Rain = 0
KTA1 180026Z 08006KT 08/M04 A3009 RMK A01 T00771039  RH  044%=      5-min Rain = 0
KTA1 180027Z 08006KT 08/M04 A3009 RMK A01 T00761039  RH  044%=      5-min Rain = 0
KTA1 180028Z 08006KT 08/M04 A3009 RMK A01 T00761038  RH  044%=      5-min Rain = 0
KTA1 180029Z 08006KT 08/M04 A3009 RMK A01 T00751038  RH  044%=      5-min Rain = 0
KTA1 180030Z 08007KT 08/M04 A3009 RMK A01 T00751038  RH  045%=      5-min Rain = 0
KTA1 180031Z 08007KT 07/M04 A3009 RMK A01 T00741037  RH  045%=      5-min Rain = 0
KTA1 180032Z 09007KT 07/M04 A3009 RMK A01 T00741038  RH  045%=      5-min Rain = 0
KTA1 180033Z 09007KT 07/M04 A3009 RMK A01 T00741038  RH  045%=      5-min Rain = 0
KTA1 180034Z 09007KT 07/M04 A3009 RMK A01 T00741037  RH  045%=      5-min Rain = 0
KTA1 180035Z 08006KT 07/M04 A3009 RMK A01 T00731038  RH  045%=      5-min Rain = 0
KTA1 180036Z 08007KT 07/M04 A3009 RMK A01 T00731038  RH  045%=      5-min Rain = 0
KTA1 180037Z 08007KT 07/M04 A3009 RMK A01 T00731038  RH  045%=      5-min Rain = 0
KTA1 180038Z 08007KT 07/M04 A3009 RMK A01 T00731037  RH  045%=      5-min Rain = 0
KTA1 180039Z 08007KT 07/M04 A3009 RMK A01 T00721037  RH  046%=      5-min Rain = 0
KTA1 180040Z 09007KT 07/M04 A3009 RMK A01 T00721038  RH  046%=      5-min Rain = 0
KTA1 180041Z 09007KT 07/M04 A3009 RMK A01 T00711038  RH  046%=      5-min Rain = 0
KTA1 180042Z 09007KT 07/M04 A3009 RMK A01 T00701038  RH  046%=      5-min Rain = 0
KTA1 180043Z 09007KT 07/M04 A3009 RMK A01 T00701038  RH  046%=      5-min Rain = 0
KTA1 180044Z 09007KT 07/M04 A3009 RMK A01 T00701039  RH  046%=      5-min Rain = 0
KTA1 180045Z 09007KT 07/M04 A3009 RMK A01 T00701039  RH  046%=      5-min Rain = 0
KTA1 180046Z 09007KT 07/M04 A3009 RMK A01 T00701039  RH  046%=      5-min Rain = 0
KTA1 180047Z 08007KT 07/M04 A3009 RMK A01 T00691039  RH  046%=      5-min Rain = 0
KTA1 180048Z 08007KT 07/M04 A3009 RMK A01 T00681039  RH  046%=      5-min Rain = 0
KTA1 180049Z 08007KT 07/M04 A3009 RMK A01 T00671039  RH  047%=      5-min Rain = 0
KTA1 180050Z 08007KT 07/M04 A3009 RMK A01 T00661039  RH  047%=      5-min Rain = 0
KTA1 180051Z 08007KT 06/M04 A3009 RMK A01 T00641039  RH  048%=      5-min Rain = 0
KTA1 180052Z 08007KT 06/M04 A3009 RMK A01 T00631039  RH  048%=      5-min Rain = 0
KTA1 180053Z 08007KT 06/M04 A3009 RMK A01 T00621039  RH  048%=      5-min Rain = 0
KTA1 180054Z 08007KT 06/M04 A3009 RMK A01 T00601040  RH  048%=      5-min Rain = 0
KTA1 180055Z 08008KT 06/M04 A3008 RMK A01 T00591040  RH  049%=      5-min Rain = 0
KTA1 180056Z 08008KT 06/M04 A3008 RMK A01 T00591040  RH  049%=      5-min Rain = 0
KTA1 180057Z 08009KT 06/M04 A3008 RMK A01 T00581039  RH  050%=      5-min Rain = 0
KTA1 180058Z 08009KT 06/M04 A3008 RMK A01 T00571039  RH  050%=      5-min Rain = 0
KTA1 180059Z 08009KT 06/M04 A3008 RMK A01 T00561039  RH  050%=      5-min Rain = 0
KTA1 180100Z 08008KT 06/M04 A3008 RMK A01 T00571039  RH  050%=      5-min Rain = 0
KTA1 180101Z 07007KT 06/M04 A3008 RMK A01 T00581039  RH  050%=      5-min Rain = 0
KTA1 180102Z 07007KT 06/M04 A3008 RMK A01 T00581039  RH  050%=      5-min Rain = 0
KTA1 180103Z 08008KT 06/M04 A3008 RMK A01 T00571039  RH  050%=      5-min Rain = 0
KTA1 180104Z 08008KT 06/M04 A3008 RMK A01 T00571040  RH  050%=      5-min Rain = 0
KTA1 180105Z 08008KT 06/M04 A3008 RMK A01 T00561040  RH  050%=      5-min Rain = 0
KTA1 180106Z 08008KT 06/M04 A3008 RMK A01 T00571040  RH  050%=      5-min Rain = 0
KTA1 180107Z 07008KT 06/M04 A3008 RMK A01 T00571040  RH  050%=      5-min Rain = 0
KTA1 180108Z 07008KT 06/M04 A3008 RMK A01 T00571041  RH  049%=      5-min Rain = 0
KTA1 180109Z 07008KT 06/M04 A3008 RMK A01 T00571041  RH  049%=      5-min Rain = 0
KTA1 180110Z 08008KT 06/M04 A3008 RMK A01 T00561040  RH  050%=      5-min Rain = 0
KTA1 180111Z 08008KT 06/M04 A3008 RMK A01 T00551040  RH  050%=      5-min Rain = 0
KTA1 180112Z 08008KT 06/M04 A3008 RMK A01 T00551040  RH  051%=      5-min Rain = 0
KTA1 180113Z 08008KT 05/M04 A3008 RMK A01 T00541040  RH  051%=      5-min Rain = 0
KTA1 180114Z 08007KT 05/M04 A3008 RMK A01 T00541040  RH  051%=      5-min Rain = 0
KTA1 180115Z 09007KT 06/M04 A3008 RMK A01 T00551039  RH  051%=      5-min Rain = 0
KTA1 180116Z 09007KT 06/M04 A3008 RMK A01 T00551038  RH  051%=      5-min Rain = 0
KTA1 180117Z 09006KT 06/M04 A3008 RMK A01 T00561038  RH  051%=      5-min Rain = 0
KTA1 180118Z 09007KT 06/M04 A3008 RMK A01 T00571037  RH  051%=      5-min Rain = 0
KTA1 180119Z 09007KT 06/M04 A3008 RMK A01 T00571037  RH  051%=      5-min Rain = 0
KTA1 180120Z 09007KT 06/M04 A3008 RMK A01 T00581037  RH  050%=      5-min Rain = 0
KTA1 180121Z 09008KT 06/M04 A3008 RMK A01 T00581037  RH  050%=      5-min Rain = 0
KTA1 180122Z 09007KT 06/M04 A3008 RMK A01 T00581037  RH  051%=      5-min Rain = 0
KTA1 180123Z 08008KT 06/M04 A3008 RMK A01 T00571037  RH  051%=      5-min Rain = 0
KTA1 180124Z 08008KT 06/M04 A3008 RMK A01 T00571037  RH  051%=      5-min Rain = 0
KTA1 180125Z 08008KT 06/M04 A3008 RMK A01 T00571037  RH  051%=      5-min Rain = 0
KTA1 180126Z 08009KT 06/M04 A3008 RMK A01 T00571038  RH  051%=      5-min Rain = 0
KTA1 180127Z 08008KT 06/M04 A3008 RMK A01 T00571038  RH  051%=      5-min Rain = 0
KTA1 180128Z 08008KT 06/M04 A3008 RMK A01 T00561037  RH  051%=      5-min Rain = 0
KTA1 180129Z 08007KT 05/M04 A3008 RMK A01 T00541037  RH  052%=      5-min Rain = 0
KTA1 180130Z 08007KT 05/M04 A3008 RMK A01 T00521037  RH  053%=      5-min Rain = 0
KTA1 180131Z 08007KT 05/M04 A3008 RMK A01 T00511038  RH  053%=      5-min Rain = 0
KTA1 180132Z 08008KT 05/M04 A3008 RMK A01 T00511039  RH  052%=      5-min Rain = 0
KTA1 180133Z 08008KT 05/M04 A3008 RMK A01 T00511040  RH  052%=      5-min Rain = 0
KTA1 180134Z 08007KT 05/M04 A3008 RMK A01 T00511040  RH  052%=      5-min Rain = 0
KTA1 180135Z 08007KT 05/M04 A3008 RMK A01 T00511040  RH  052%=      5-min Rain = 0
KTA1 180136Z 08007KT 05/M04 A3008 RMK A01 T00511040  RH  052%=      5-min Rain = 0
KTA1 180137Z 08007KT 05/M04 A3008 RMK A01 T00511041  RH  052%=      5-min Rain = 0
KTA1 180138Z 08008KT 05/M04 A3008 RMK A01 T00511041  RH  052%=      5-min Rain = 0
KTA1 180139Z 08008KT 05/M04 A3008 RMK A01 T00501040  RH  052%=      5-min Rain = 0
KTA1 180140Z 07008KT 05/M04 A3008 RMK A01 T00481041  RH  053%=      5-min Rain = 0
KTA1 180141Z 08007KT 05/M04 A3008 RMK A01 T00471040  RH  053%=      5-min Rain = 0
KTA1 180142Z 08007KT 05/M04 A3008 RMK A01 T00461040  RH  054%=      5-min Rain = 0
KTA1 180143Z 07007KT 05/M04 A3008 RMK A01 T00461040  RH  054%=      5-min Rain = 0
KTA1 180144Z 07007KT 05/M04 A3008 RMK A01 T00451040  RH  054%=      5-min Rain = 0
KTA1 180145Z 07007KT 05/M04 A3008 RMK A01 T00451039  RH  054%=      5-min Rain = 0
KTA1 180146Z 07007KT 05/M04 A3008 RMK A01 T00461039  RH  054%=      5-min Rain = 0
KTA1 180147Z 07007KT 05/M04 A3008 RMK A01 T00461039  RH  054%=      5-min Rain = 0
KTA1 180148Z 07007KT 05/M04 A3008 RMK A01 T00481039  RH  053%=      5-min Rain = 0
KTA1 180149Z 07007KT 05/M04 A3008 RMK A01 T00491039  RH  053%=      5-min Rain = 0
KTA1 180150Z 07007KT 05/M04 A3008 RMK A01 T00481039  RH  053%=      5-min Rain = 0
KTA1 180151Z 07007KT 05/M04 A3008 RMK A01 T00481040  RH  053%=      5-min Rain = 0
KTA1 180152Z 07007KT 05/M04 A3008 RMK A01 T00481040  RH  053%=      5-min Rain = 0
KTA1 180153Z 07007KT 05/M04 A3008 RMK A01 T00491040  RH  053%=      5-min Rain = 0
KTA1 180154Z 07007KT 05/M04 A3008 RMK A01 T00491040  RH  052%=      5-min Rain = 0
KTA1 180155Z 07007KT 05/M04 A3008 RMK A01 T00491041  RH  052%=      5-min Rain = 0
KTA1 180156Z 07007KT 05/M04 A3008 RMK A01 T00491041  RH  052%=      5-min Rain = 0
KTA1 180157Z 07007KT 05/M04 A3008 RMK A01 T00491041  RH  052%=      5-min Rain = 0
KTA1 180158Z 07007KT 05/M04 A3008 RMK A01 T00481041  RH  052%=      5-min Rain = 0
KTA1 180159Z 07006KT 05/M04 A3008 RMK A01 T00481041  RH  053%=      5-min Rain = 0
KTA1 180200Z 07007KT 05/M04 A3008 RMK A01 T00471041  RH  053%=      5-min Rain = 0
KTA1 180201Z 07007KT 05/M04 A3008 RMK A01 T00461041  RH  053%=      5-min Rain = 0
KTA1 180202Z 07007KT 05/M04 A3008 RMK A01 T00451041  RH  053%=      5-min Rain = 0
KTA1 180203Z 07007KT 05/M04 A3008 RMK A01 T00461041  RH  053%=      5-min Rain = 0
KTA1 180204Z 07007KT 05/M04 A3008 RMK A01 T00451041  RH  053%=      5-min Rain = 0
KTA1 180205Z 08007KT 05/M04 A3008 RMK A01 T00451042  RH  053%=      5-min Rain = 0
KTA1 180206Z 08007KT 05/M04 A3008 RMK A01 T00451042  RH  053%=      5-min Rain = 0
KTA1 180207Z 08006KT 05/M04 A3008 RMK A01 T00451043  RH  053%=      5-min Rain = 0
KTA1 180208Z 08006KT 05/M04 A3008 RMK A01 T00461042  RH  053%=      5-min Rain = 0
KTA1 180209Z 08006KT 05/M04 A3008 RMK A01 T00451042  RH  053%=      5-min Rain = 0
KTA1 180210Z 07007KT 05/M04 A3008 RMK A01 T00451042  RH  053%=      5-min Rain = 0
KTA1 180211Z 07007KT 04/M04 A3008 RMK A01 T00441041  RH  054%=      5-min Rain = 0
KTA1 180212Z 07007KT 04/M04 A3008 RMK A01 T00431041  RH  054%=      5-min Rain = 0
KTA1 180213Z 08007KT 04/M04 A3008 RMK A01 T00431041  RH  055%=      5-min Rain = 0
KTA1 180214Z 08007KT 04/M04 A3008 RMK A01 T00431041  RH  054%=      5-min Rain = 0
KTA1 180215Z 08007KT 04/M04 A3008 RMK A01 T00441040  RH  054%=      5-min Rain = 0
KTA1 180216Z 08007KT 05/M04 A3008 RMK A01 T00451040  RH  054%=      5-min Rain = 0
KTA1 180217Z 08007KT 05/M04 A3008 RMK A01 T00451040  RH  054%=      5-min Rain = 0
KTA1 180218Z 08007KT 05/M04 A3008 RMK A01 T00451039  RH  054%=      5-min Rain = 0
KTA1 180219Z 08007KT 05/M04 A3008 RMK A01 T00451039  RH  055%=      5-min Rain = 0
KTA1 180220Z 08007KT 05/M04 A3008 RMK A01 T00451038  RH  055%=      5-min Rain = 0
KTA1 180221Z 08007KT 05/M04 A3008 RMK A01 T00451038  RH  055%=      5-min Rain = 0
KTA1 180222Z 08008KT 04/M04 A3008 RMK A01 T00441038  RH  055%=      5-min Rain = 0
KTA1 180223Z 08008KT 04/M04 A3008 RMK A01 T00431037  RH  056%=      5-min Rain = 0
KTA1 180224Z 08008KT 04/M04 A3008 RMK A01 T00431037  RH  056%=      5-min Rain = 0
KTA1 180225Z 08008KT 04/M04 A3008 RMK A01 T00421037  RH  057%=      5-min Rain = 0
KTA1 180226Z 08008KT 04/M04 A3008 RMK A01 T00421037  RH  057%=      5-min Rain = 0
KTA1 180227Z 08008KT 04/M04 A3008 RMK A01 T00421037  RH  056%=      5-min Rain = 0
KTA1 180228Z 08008KT 04/M04 A3008 RMK A01 T00431037  RH  056%=      5-min Rain = 0
KTA1 180229Z 08008KT 04/M04 A3008 RMK A01 T00431037  RH  056%=      5-min Rain = 0
KTA1 180230Z 08008KT 04/M04 A3008 RMK A01 T00441037  RH  056%=      5-min Rain = 0
KTA1 180231Z 08008KT 04/M04 A3008 RMK A01 T00441038  RH  055%=      5-min Rain = 0
KTA1 180232Z 08007KT 04/M04 A3008 RMK A01 T00441038  RH  055%=      5-min Rain = 0
KTA1 180233Z 09008KT 04/M04 A3008 RMK A01 T00441038  RH  055%=      5-min Rain = 0
KTA1 180234Z 08008KT 04/M04 A3008 RMK A01 T00431039  RH  055%=      5-min Rain = 0
KTA1 180235Z 09008KT 04/M04 A3008 RMK A01 T00441039  RH  055%=      5-min Rain = 0
KTA1 180236Z 08007KT 04/M04 A3008 RMK A01 T00441039  RH  055%=      5-min Rain = 0
KTA1 180237Z 08007KT 04/M04 A3008 RMK A01 T00441039  RH  055%=      5-min Rain = 0
KTA1 180238Z 08007KT 04/M04 A3008 RMK A01 T00431039  RH  055%=      5-min Rain = 0
KTA1 180239Z 08007KT 04/M04 A3008 RMK A01 T00421039  RH  056%=      5-min Rain = 0
KTA1 180240Z 08007KT 04/M04 A3008 RMK A01 T00411039  RH  056%=      5-min Rain = 0
KTA1 180241Z 08008KT 04/M04 A3008 RMK A01 T00411039  RH  056%=      5-min Rain = 0
KTA1 180242Z 08008KT 04/M04 A3008 RMK A01 T00401039  RH  056%=      5-min Rain = 0
KTA1 180243Z 08008KT 04/M04 A3008 RMK A01 T00401039  RH  056%=      5-min Rain = 0
KTA1 180244Z 08008KT 04/M04 A3008 RMK A01 T00401039  RH  056%=      5-min Rain = 0
KTA1 180245Z 08008KT 04/M04 A3008 RMK A01 T00401039  RH  056%=      5-min Rain = 0
KTA1 180246Z 08008KT 04/M04 A3008 RMK A01 T00401038  RH  056%=      5-min Rain = 0
KTA1 180247Z 08007KT 04/M04 A3007 RMK A01 T00401038  RH  057%=      5-min Rain = 0
KTA1 180248Z 09007KT 04/M04 A3008 RMK A01 T00401038  RH  057%=      5-min Rain = 0
KTA1 180249Z 09007KT 04/M04 A3008 RMK A01 T00401038  RH  057%=      5-min Rain = 0
KTA1 180250Z 09007KT 04/M04 A3008 RMK A01 T00401038  RH  057%=      5-min Rain = 0
KTA1 180251Z 09007KT 04/M04 A3008 RMK A01 T00401039  RH  056%=      5-min Rain = 0
KTA1 180252Z 09008KT 04/M04 A3008 RMK A01 T00411039  RH  056%=      5-min Rain = 0
KTA1 180253Z 09008KT 04/M04 A3007 RMK A01 T00411038  RH  056%=      5-min Rain = 0
KTA1 180254Z 09008KT 04/M04 A3007 RMK A01 T00411038  RH  056%=      5-min Rain = 0
KTA1 180255Z 09008KT 04/M04 A3007 RMK A01 T00411038  RH  056%=      5-min Rain = 0
KTA1 180256Z 09008KT 04/M04 A3007 RMK A01 T00421038  RH  056%=      5-min Rain = 0
KTA1 180257Z 09009KT 04/M04 A3007 RMK A01 T00421038  RH  056%=      5-min Rain = 0
KTA1 180258Z 09008KT 04/M04 A3007 RMK A01 T00431038  RH  055%=      5-min Rain = 0
KTA1 180259Z 09008KT 04/M04 A3007 RMK A01 T00441038  RH  055%=      5-min Rain = 0
KTA1 180300Z 09008KT 04/M04 A3007 RMK A01 T00431038  RH  055%=      5-min Rain = 0
KTA1 180301Z 09007KT 04/M04 A3007 RMK A01 T00431038  RH  056%=      5-min Rain = 0
KTA1 180302Z 09007KT 04/M04 A3007 RMK A01 T00431037  RH  056%=      5-min Rain = 0
KTA1 180303Z 09008KT 04/M04 A3007 RMK A01 T00421038  RH  056%=      5-min Rain = 0
KTA1 180304Z 10008KT 04/M04 A3007 RMK A01 T00431038  RH  056%=      5-min Rain = 0
KTA1 180305Z 10008KT 04/M04 A3007 RMK A01 T00431038  RH  055%=      5-min Rain = 0
KTA1 180306Z 10008KT 04/M04 A3007 RMK A01 T00441038  RH  055%=      5-min Rain = 0
KTA1 180307Z 10009KT 04/M04 A3007 RMK A01 T00441037  RH  056%=      5-min Rain = 0
KTA1 180308Z 10008KT 04/M04 A3007 RMK A01 T00441037  RH  055%=      5-min Rain = 0
KTA1 180309Z 10008KT 05/M04 A3007 RMK A01 T00461038  RH  055%=      5-min Rain = 0
KTA1 180310Z 10008KT 05/M04 A3007 RMK A01 T00481038  RH  054%=      5-min Rain = 0
KTA1 180311Z 10008KT 05/M04 A3007 RMK A01 T00481038  RH  054%=      5-min Rain = 0
KTA1 180312Z 10008KT 05/M04 A3007 RMK A01 T00481038  RH  054%=      5-min Rain = 0
KTA1 180313Z 10007KT 05/M04 A3007 RMK A01 T00471038  RH  054%=      5-min Rain = 0
KTA1 180314Z 10007KT 05/M04 A3007 RMK A01 T00461038  RH  055%=      5-min Rain = 0
KTA1 180315Z 10007KT 05/M04 A3007 RMK A01 T00451038  RH  055%=      5-min Rain = 0
KTA1 180316Z 10007KT 05/M04 A3007 RMK A01 T00451037  RH  055%=      5-min Rain = 0
KTA1 180317Z 10007KT 05/M04 A3007 RMK A01 T00451037  RH  055%=      5-min Rain = 0
KTA1 180318Z 10006KT 05/M04 A3007 RMK A01 T00451037  RH  055%=      5-min Rain = 0
KTA1 180319Z 10006KT 05/M04 A3007 RMK A01 T00451038  RH  055%=      5-min Rain = 0
KTA1 180320Z 10007KT 05/M04 A3007 RMK A01 T00451038  RH  055%=      5-min Rain = 0
KTA1 180321Z 10006KT 05/M04 A3007 RMK A01 T00451038  RH  055%=      5-min Rain = 0
KTA1 180322Z 10007KT 05/M04 A3007 RMK A01 T00461038  RH  054%=      5-min Rain = 0
KTA1 180323Z 10007KT 05/M04 A3007 RMK A01 T00451038  RH  055%=      5-min Rain = 0
KTA1 180324Z 10007KT 04/M04 A3007 RMK A01 T00441038  RH  055%=      5-min Rain = 0
KTA1 180325Z 10006KT 04/M04 A3007 RMK A01 T00431038  RH  056%=      5-min Rain = 0
KTA1 180326Z 10006KT 04/M04 A3007 RMK A01 T00431038  RH  056%=      5-min Rain = 0
KTA1 180327Z 10006KT 04/M04 A3007 RMK A01 T00421038  RH  056%=      5-min Rain = 0
KTA1 180328Z 11006KT 04/M04 A3007 RMK A01 T00421038  RH  056%=      5-min Rain = 0
KTA1 180329Z 11005KT 04/M04 A3007 RMK A01 T00411038  RH  056%=      5-min Rain = 0
KTA1 180330Z 11006KT 04/M04 A3007 RMK A01 T00401038  RH  057%=      5-min Rain = 0
KTA1 180331Z 11007KT 04/M04 A3007 RMK A01 T00391037  RH  057%=      5-min Rain = 0
KTA1 180332Z 10006KT 04/M04 A3007 RMK A01 T00391037  RH  058%=      5-min Rain = 0
KTA1 180333Z 11007KT 04/M04 A3007 RMK A01 T00391038  RH  057%=      5-min Rain = 0
KTA1 180334Z 11008KT 04/M04 A3007 RMK A01 T00401038  RH  057%=      5-min Rain = 0
KTA1 180335Z 11008KT 04/M04 A3007 RMK A01 T00411038  RH  056%=      5-min Rain = 0
KTA1 180336Z 11008KT 04/M04 A3007 RMK A01 T00421038  RH  056%=      5-min Rain = 0
KTA1 180337Z 11008KT 04/M04 A3007 RMK A01 T00421038  RH  056%=      5-min Rain = 0
KTA1 180338Z 11007KT 04/M04 A3007 RMK A01 T00421038  RH  056%=      5-min Rain = 0
KTA1 180339Z 11007KT 04/M04 A3007 RMK A01 T00421038  RH  056%=      5-min Rain = 0
KTA1 180340Z 10007KT 04/M04 A3007 RMK A01 T00421038  RH  056%=      5-min Rain = 0
KTA1 180341Z 10007KT 04/M04 A3007 RMK A01 T00411038  RH  057%=      5-min Rain = 0
KTA1 180342Z 11007KT 04/M04 A3007 RMK A01 T00401038  RH  057%=      5-min Rain = 0
KTA1 180343Z 10007KT 04/M04 A3007 RMK A01 T00391038  RH  057%=      5-min Rain = 0
KTA1 180344Z 11007KT 04/M04 A3007 RMK A01 T00381038  RH  057%=      5-min Rain = 0
KTA1 180345Z 11007KT 04/M04 A3007 RMK A01 T00381038  RH  058%=      5-min Rain = 0
KTA1 180346Z 11006KT 04/M04 A3007 RMK A01 T00381038  RH  058%=      5-min Rain = 0
KTA1 180347Z 11006KT 04/M04 A3007 RMK A01 T00371038  RH  058%=      5-min Rain = 0
KTA1 180348Z 10007KT 04/M04 A3007 RMK A01 T00371038  RH  058%=      5-min Rain = 0
KTA1 180349Z 11007KT 04/M04 A3007 RMK A01 T00361038  RH  058%=      5-min Rain = 0
KTA1 180350Z 11006KT 04/M04 A3007 RMK A01 T00351038  RH  059%=      5-min Rain = 0
KTA1 180351Z 11006KT 03/M04 A3007 RMK A01 T00341038  RH  059%=      5-min Rain = 0
KTA1 180352Z 11006KT 03/M04 A3007 RMK A01 T00321038  RH  060%=      5-min Rain = 0
KTA1 180353Z 11006KT 03/M04 A3007 RMK A01 T00311039  RH  060%=      5-min Rain = 0
KTA1 180354Z 11005KT 03/M04 A3007 RMK A01 T00291039  RH  061%=      5-min Rain = 0
KTA1 180355Z 11005KT 03/M04 A3007 RMK A01 T00281039  RH  061%=      5-min Rain = 0
KTA1 180356Z 11006KT 03/M04 A3007 RMK A01 T00271039  RH  062%=      5-min Rain = 0
KTA1 180357Z 11006KT 03/M04 A3006 RMK A01 T00251039  RH  063%=      5-min Rain = 0
KTA1 180358Z 11006KT 02/M04 A3006 RMK A01 T00241039  RH  063%=      5-min Rain = 0
KTA1 180359Z 11006KT 02/M04 A3006 RMK A01 T00241038  RH  063%=      5-min Rain = 0
KTA1 180400Z 11006KT 02/M04 A3006 RMK A01 T00231039  RH  064%=      5-min Rain = 0
KTA1 180401Z 11005KT 02/M04 A3006 RMK A01 T00231039  RH  064%=      5-min Rain = 0
KTA1 180402Z 11005KT 02/M04 A3006 RMK A01 T00231039  RH  064%=      5-min Rain = 0
KTA1 180403Z 11005KT 02/M04 A3006 RMK A01 T00221039  RH  064%=      5-min Rain = 0
KTA1 180404Z 11005KT 02/M04 A3006 RMK A01 T00221039  RH  064%=      5-min Rain = 0
KTA1 180405Z 11005KT 02/M04 A3006 RMK A01 T00211038  RH  065%=      5-min Rain = 0
KTA1 180406Z 11006KT 02/M04 A3006 RMK A01 T00211039  RH  065%=      5-min Rain = 0
KTA1 180407Z 11006KT 02/M04 A3006 RMK A01 T00211039  RH  065%=      5-min Rain = 0
KTA1 180408Z 11006KT 02/M04 A3006 RMK A01 T00211038  RH  065%=      5-min Rain = 0
KTA1 180409Z 11006KT 02/M04 A3006 RMK A01 T00211038  RH  065%=      5-min Rain = 0
KTA1 180410Z 11006KT 02/M04 A3006 RMK A01 T00211038  RH  065%=      5-min Rain = 0
KTA1 180411Z 11006KT 02/M04 A3006 RMK A01 T00201038  RH  065%=      5-min Rain = 0
KTA1 180412Z 11007KT 02/M04 A3006 RMK A01 T00201038  RH  065%=      5-min Rain = 0
KTA1 180413Z 11007KT 02/M04 A3006 RMK A01 T00201038  RH  065%=      5-min Rain = 0
KTA1 180414Z 11007KT 02/M04 A3006 RMK A01 T00211038  RH  065%=      5-min Rain = 0
KTA1 180415Z 11008KT 02/M04 A3006 RMK A01 T00221039  RH  064%=      5-min Rain = 0
KTA1 180416Z 11007KT 02/M04 A3006 RMK A01 T00231039  RH  064%=      5-min Rain = 0
KTA1 180417Z 11007KT 02/M04 A3006 RMK A01 T00241039  RH  063%=      5-min Rain = 0
KTA1 180418Z 11007KT 02/M04 A3006 RMK A01 T00241039  RH  063%=      5-min Rain = 0
KTA1 180419Z 11007KT 02/M04 A3006 RMK A01 T00241039  RH  063%=      5-min Rain = 0
KTA1 180420Z 12007KT 02/M04 A3006 RMK A01 T00241039  RH  063%=      5-min Rain = 0
KTA1 180421Z 12006KT 02/M04 A3006 RMK A01 T00241039  RH  063%=      5-min Rain = 0
KTA1 180422Z 12006KT 02/M04 A3006 RMK A01 T00231039  RH  063%=      5-min Rain = 0
KTA1 180423Z 13006KT 02/M04 A3006 RMK A01 T00221039  RH  064%=      5-min Rain = 0
KTA1 180424Z 13006KT 02/M04 A3006 RMK A01 T00221039  RH  064%=      5-min Rain = 0
KTA1 180425Z 13006KT 02/M04 A3006 RMK A01 T00211040  RH  064%=      5-min Rain = 0
KTA1 180426Z 13006KT 02/M04 A3006 RMK A01 T00211040  RH  064%=      5-min Rain = 0
KTA1 180427Z 13006KT 02/M04 A3006 RMK A01 T00201040  RH  064%=      5-min Rain = 0
KTA1 180428Z 13007KT 02/M04 A3006 RMK A01 T00191040  RH  065%=      5-min Rain = 0
KTA1 180429Z 13006KT 02/M04 A3006 RMK A01 T00191040  RH  065%=      5-min Rain = 0
KTA1 180430Z 13006KT 02/M04 A3006 RMK A01 T00181040  RH  065%=      5-min Rain = 0
KTA1 180431Z 13006KT 02/M04 A3006 RMK A01 T00181040  RH  065%=      5-min Rain = 0
KTA1 180432Z 13005KT 02/M04 A3006 RMK A01 T00181040  RH  065%=      5-min Rain = 0
KTA1 180433Z 13006KT 02/M04 A3006 RMK A01 T00181040  RH  065%=      5-min Rain = 0
KTA1 180434Z 13006KT 02/M04 A3006 RMK A01 T00181040  RH  065%=      5-min Rain = 0
KTA1 180435Z 13005KT 02/M04 A3006 RMK A01 T00181040  RH  065%=      5-min Rain = 0
KTA1 180436Z 13005KT 02/M04 A3006 RMK A01 T00181040  RH  065%=      5-min Rain = 0
KTA1 180437Z 13005KT 02/M04 A3006 RMK A01 T00171040  RH  066%=      5-min Rain = 0
KTA1 180438Z 13006KT 02/M04 A3006 RMK A01 T00171040  RH  066%=      5-min Rain = 0
KTA1 180439Z 14006KT 02/M04 A3006 RMK A01 T00171040  RH  066%=      5-min Rain = 0
KTA1 180440Z 14006KT 02/M04 A3006 RMK A01 T00171040  RH  066%=      5-min Rain = 0
KTA1 180441Z 13006KT 02/M04 A3006 RMK A01 T00161040  RH  066%=      5-min Rain = 0
KTA1 180442Z 14006KT 02/M04 A3006 RMK A01 T00161040  RH  067%=      5-min Rain = 0
KTA1 180443Z 14006KT 02/M04 A3006 RMK A01 T00151040  RH  067%=      5-min Rain = 0
KTA1 180444Z 14006KT 02/M04 A3006 RMK A01 T00151039  RH  067%=      5-min Rain = 0
KTA1 180445Z 14006KT 02/M04 A3006 RMK A01 T00151039  RH  067%=      5-min Rain = 0
KTA1 180446Z 14006KT 02/M04 A3006 RMK A01 T00151039  RH  067%=      5-min Rain = 0
KTA1 180447Z 14006KT 02/M04 A3006 RMK A01 T00151040  RH  067%=      5-min Rain = 0
KTA1 180448Z 14005KT 02/M04 A3005 RMK A01 T00151040  RH  067%=      5-min Rain = 0
KTA1 180449Z 14005KT 02/M04 A3005 RMK A01 T00161040  RH  066%=      5-min Rain = 0
KTA1 180450Z 15005KT 02/M04 A3005 RMK A01 T00171039  RH  066%=      5-min Rain = 0
KTA1 180451Z 15005KT 02/M04 A3005 RMK A01 T00171040  RH  066%=      5-min Rain = 0
KTA1 180452Z 15006KT 02/M04 A3005 RMK A01 T00181040  RH  066%=      5-min Rain = 0
KTA1 180453Z 15005KT 02/M04 A3005 RMK A01 T00181040  RH  065%=      5-min Rain = 0
KTA1 180454Z 15005KT 02/M04 A3005 RMK A01 T00191041  RH  065%=      5-min Rain = 0
KTA1 180455Z 15005KT 02/M04 A3005 RMK A01 T00201040  RH  064%=      5-min Rain = 0
KTA1 180456Z 15005KT 02/M04 A3005 RMK A01 T00211040  RH  064%=      5-min Rain = 0
KTA1 180457Z 15005KT 02/M04 A3005 RMK A01 T00211040  RH  064%=      5-min Rain = 0
KTA1 180458Z 15004KT 02/M04 A3005 RMK A01 T00211040  RH  064%=      5-min Rain = 0
KTA1 180459Z 15004KT 02/M04 A3005 RMK A01 T00211040  RH  064%=      5-min Rain = 0
KTA1 180500Z 15004KT 02/M04 A3005 RMK A01 T00211040  RH  064%=      5-min Rain = 0
KTA1 180501Z 16004KT 02/M04 A3005 RMK A01 T00211040  RH  064%=      5-min Rain = 0
KTA1 180502Z 16004KT 02/M04 A3005 RMK A01 T00211040  RH  064%=      5-min Rain = 0
KTA1 180503Z 16004KT 02/M04 A3005 RMK A01 T00211040  RH  064%=      5-min Rain = 0
KTA1 180504Z 16004KT 02/M04 A3005 RMK A01 T00201040  RH  064%=      5-min Rain = 0
KTA1 180505Z 16004KT 02/M04 A3005 RMK A01 T00201040  RH  064%=      5-min Rain = 0
KTA1 180506Z 17004KT 02/M04 A3005 RMK A01 T00201040  RH  065%=      5-min Rain = 0
KTA1 180507Z 17004KT 02/M04 A3005 RMK A01 T00191040  RH  065%=      5-min Rain = 0
KTA1 180508Z 17004KT 02/M04 A3005 RMK A01 T00191040  RH  065%=      5-min Rain = 0
KTA1 180509Z 17005KT 02/M04 A3005 RMK A01 T00181039  RH  065%=      5-min Rain = 0
KTA1 180510Z 17004KT 02/M04 A3005 RMK A01 T00181039  RH  066%=      5-min Rain = 0
KTA1 180511Z 17004KT 02/M04 A3005 RMK A01 T00181039  RH  066%=      5-min Rain = 0
KTA1 180512Z 17004KT 02/M04 A3005 RMK A01 T00181039  RH  066%=      5-min Rain = 0
KTA1 180513Z 16004KT 02/M04 A3005 RMK A01 T00171039  RH  066%=      5-min Rain = 0
KTA1 180514Z 17004KT 02/M04 A3005 RMK A01 T00171040  RH  066%=      5-min Rain = 0
KTA1 180515Z 17004KT 02/M04 A3005 RMK A01 T00161040  RH  066%=      5-min Rain = 0
KTA1 180516Z 17004KT 02/M04 A3005 RMK A01 T00161040  RH  066%=      5-min Rain = 0
KTA1 180517Z 17005KT 02/M04 A3005 RMK A01 T00161041  RH  066%=      5-min Rain = 0
KTA1 180518Z 17005KT 02/M04 A3005 RMK A01 T00161041  RH  066%=      5-min Rain = 0
KTA1 180519Z 17005KT 02/M04 A3005 RMK A01 T00151041  RH  066%=      5-min Rain = 0
KTA1 180520Z 17005KT 02/M04 A3005 RMK A01 T00151041  RH  066%=      5-min Rain = 0
KTA1 180521Z 16005KT 02/M04 A3004 RMK A01 T00151041  RH  066%=      5-min Rain = 0
KTA1 180522Z 16005KT 02/M04 A3004 RMK A01 T00151041  RH  066%=      5-min Rain = 0
KTA1 180523Z 17005KT 02/M04 A3004 RMK A01 T00161041  RH  066%=      5-min Rain = 0
KTA1 180524Z 17005KT 02/M04 A3004 RMK A01 T00161041  RH  066%=      5-min Rain = 0
KTA1 180525Z 17005KT 02/M04 A3004 RMK A01 T00161040  RH  066%=      5-min Rain = 0
KTA1 180526Z 17005KT 02/M04 A3004 RMK A01 T00161040  RH  066%=      5-min Rain = 0
KTA1 180527Z 17005KT 02/M04 A3004 RMK A01 T00161041  RH  066%=      5-min Rain = 0
KTA1 180528Z 17005KT 02/M04 A3004 RMK A01 T00171040  RH  066%=      5-min Rain = 0
KTA1 180529Z 17005KT 02/M04 A3004 RMK A01 T00171041  RH  066%=      5-min Rain = 0
KTA1 180530Z 16005KT 02/M04 A3004 RMK A01 T00171041  RH  066%=      5-min Rain = 0
KTA1 180531Z 16005KT 02/M04 A3004 RMK A01 T00161041  RH  066%=      5-min Rain = 0
KTA1 180532Z 16005KT 02/M04 A3004 RMK A01 T00161041  RH  066%=      5-min Rain = 0
KTA1 180533Z 16005KT 02/M04 A3004 RMK A01 T00161040  RH  066%=      5-min Rain = 0
KTA1 180534Z 17005KT 02/M04 A3004 RMK A01 T00151040  RH  067%=      5-min Rain = 0
KTA1 180535Z 16005KT 02/M04 A3004 RMK A01 T00151040  RH  067%=      5-min Rain = 0
KTA1 180536Z 16005KT 01/M04 A3004 RMK A01 T00141040  RH  067%=      5-min Rain = 0
KTA1 180537Z 16005KT 01/M04 A3004 RMK A01 T00141040  RH  067%=      5-min Rain = 0
KTA1 180538Z 17005KT 01/M04 A3004 RMK A01 T00141040  RH  067%=      5-min Rain = 0
KTA1 180539Z 17004KT 01/M04 A3004 RMK A01 T00141040  RH  067%=      5-min Rain = 0
KTA1 180540Z 17004KT 01/M04 A3004 RMK A01 T00141040  RH  067%=      5-min Rain = 0
KTA1 180541Z 17004KT 01/M04 A3004 RMK A01 T00141040  RH  067%=      5-min Rain = 0
KTA1 180542Z 17004KT 01/M04 A3004 RMK A01 T00131040  RH  067%=      5-min Rain = 0
KTA1 180543Z 17004KT 01/M04 A3004 RMK A01 T00131041  RH  067%=      5-min Rain = 0
KTA1 180544Z 17004KT 01/M04 A3004 RMK A01 T00121041  RH  067%=      5-min Rain = 0
KTA1 180545Z 18004KT 01/M04 A3004 RMK A01 T00121041  RH  068%=      5-min Rain = 0
KTA1 180546Z 17004KT 01/M04 A3004 RMK A01 T00121041  RH  068%=      5-min Rain = 0
KTA1 180547Z 17003KT 01/M04 A3004 RMK A01 T00111041  RH  068%=      5-min Rain = 0
KTA1 180548Z 17004KT 01/M04 A3004 RMK A01 T00111041  RH  068%=      5-min Rain = 0
KTA1 180549Z 17004KT 01/M04 A3004 RMK A01 T00101041  RH  068%=      5-min Rain = 0
KTA1 180550Z 16004KT 01/M04 A3004 RMK A01 T00101041  RH  069%=      5-min Rain = 0
KTA1 180551Z 16004KT 01/M04 A3004 RMK A01 T00101041  RH  069%=      5-min Rain = 0
KTA1 180552Z 16004KT 01/M04 A3003 RMK A01 T00091041  RH  069%=      5-min Rain = 0
KTA1 180553Z 16004KT 01/M04 A3003 RMK A01 T00091041  RH  069%=      5-min Rain = 0
KTA1 180554Z 16003KT 01/M04 A3003 RMK A01 T00091040  RH  069%=      5-min Rain = 0
KTA1 180555Z 16004KT 01/M04 A3003 RMK A01 T00091040  RH  070%=      5-min Rain = 0
KTA1 180556Z 16004KT 01/M04 A3003 RMK A01 T00091040  RH  069%=      5-min Rain = 0
KTA1 180557Z 16004KT 01/M04 A3003 RMK A01 T00091041  RH  069%=      5-min Rain = 0
KTA1 180558Z 16004KT 01/M04 A3003 RMK A01 T00101041  RH  069%=      5-min Rain = 0
KTA1 180559Z 16004KT 01/M04 A3003 RMK A01 T00101041  RH  069%=      5-min Rain = 0

Page generated in 0.0654 seconds.